GEFSSGP_500_meanwind_102.txt.gz
Wind_Speed
59 60 60 59 60 61 59 54 49 47 45 44 43 41 39 37 35 32 30 27 24 22 20 18 16 15 13 12 11 10 9 9 9 9 8 8 7 7 6 6 5 5 4 4 3 2 2 1 1
59 61 61 61 62 62 59 54 50 46 46 45 44 43 40 38 35 33 30 28 26 24 22 19 17 16 15 13 12 11 11 10 10 9 9 9 8 8 7 7 6 5 5 4 4 3 3 2 1
60 61 62 63 64 62 57 53 49 47 47 47 46 45 42 39 35 33 31 29 27 25 23 21 19 17 16 14 13 12 12 11 11 10 10 10 9 9 8 7 7 6 6 5 5 4 3 3 2
59 61 63 64 65 60 55 52 50 49 49 49 47 46 43 40 37 35 32 30 28 26 25 23 21 19 17 16 14 13 13 12 12 12 11 11 10 10 9 8 8 7 7 6 5 5 4 4 3
58 61 63 64 63 59 56 53 52 52 51 49 49 47 44 41 38 36 34 32 30 28 26 24 22 20 19 17 16 15 14 13 13 13 13 12 12 11 10 9 8 8 7 7 6 5 5 4 4
58 61 62 63 61 57 56 54 54 54 53 51 50 48 46 43 40 38 36 34 32 29 27 25 23 21 20 18 17 16 15 14 14 14 14 13 13 12 11 10 9 9 8 7 7 6 6 6 5
58 59 60 60 59 58 56 55 56 55 54 53 51 51 48 45 42 39 37 35 33 31 28 26 24 22 21 20 18 18 17 16 15 15 15 14 14 13 12 12 10 10 9 8 8 7 7 6 6
56 58 58 58 59 57 55 56 56 57 56 56 54 52 50 47 44 40 38 36 35 32 30 28 26 24 22 21 20 19 18 17 16 16 16 16 15 15 14 13 12 11 10 9 9 8 8 7 7
55 57 58 57 58 56 54 56 58 58 57 57 55 52 50 48 45 42 39 36 35 33 31 29 27 26 24 22 21 21 19 18 18 18 17 17 17 16 15 15 13 12 11 11 10 10 9 9 9
54 55 54 56 57 57 55 56 58 58 58 57 56 54 52 50 47 43 40 37 35 33 32 31 29 27 25 24 23 22 21 20 20 19 19 18 18 17 16 16 15 14 13 12 12 11 11 11 11
52 52 53 55 56 58 56 56 57 57 57 55 54 54 53 51 48 45 41 40 38 36 35 33 30 28 27 25 24 24 23 22 21 20 20 20 19 19 18 17 16 15 15 14 14 13 13 13 12
48 50 52 54 56 57 57 55 56 57 56 55 53 53 53 52 49 47 44 41 39 38 36 34 32 30 28 27 25 25 24 23 23 22 21 21 21 20 19 19 18 17 16 16 15 15 15 15 14
45 48 50 53 56 57 57 55 55 55 54 54 52 53 53 52 50 48 46 44 42 40 38 35 33 32 30 28 27 26 26 25 24 23 23 23 22 22 21 20 20 19 18 18 18 17 17 17 17
44 45 47 51 55 56 56 56 57 56 54 54 53 52 53 53 51 50 49 46 43 41 39 36 35 34 32 31 29 28 27 26 25 25 24 24 24 23 23 22 22 21 21 21 20 20 20 20 20
43 44 44 48 53 54 55 56 56 56 56 55 53 52 52 53 54 51 50 47 45 43 41 39 38 36 35 34 32 30 28 27 26 26 25 25 25 25 25 25 24 24 23 23 23 23 22 22 22
42 44 44 45 50 53 54 55 55 55 57 56 55 53 53 52 53 52 50 49 47 45 44 43 41 39 37 36 34 32 31 29 28 27 27 27 26 26 27 27 27 26 26 26 26 26 25 25 25
38 41 43 45 46 51 54 55 56 56 55 56 55 55 53 53 52 52 52 51 49 48 46 45 43 41 40 38 37 35 33 31 30 29 29 28 28 28 28 29 29 29 29 29 29 28 28 28 28
35 38 40 43 44 46 50 53 54 54 55 54 54 55 54 53 52 52 51 51 50 49 48 46 45 44 43 42 40 39 36 34 33 32 31 31 30 30 31 31 31 31 31 31 31 31 31 30 30
29 34 36 41 44 45 47 51 53 54 54 54 54 54 54 52 51 52 52 50 50 50 49 47 47 45 44 44 42 41 38 36 35 34 34 34 33 33 32 33 33 33 33 33 33 33 33 33 33
26 29 33 37 41 42 46 49 53 55 54 54 52 52 53 52 51 51 51 52 51 50 49 49 48 47 44 44 43 42 41 39 38 37 36 35 35 35 35 35 35 35 36 36 36 36 36 37 37
23 26 29 34 38 40 43 47 50 52 53 53 51 50 51 50 49 50 51 52 52 51 50 48 48 48 46 45 45 44 43 42 41 40 39 38 37 37 37 37 37 37 37 37 37 37 37 38 39
20 23 25 30 33 37 42 46 49 50 51 52 51 49 49 49 48 49 50 51 51 52 52 51 50 49 49 47 46 45 45 43 42 41 41 40 40 40 40 40 40 39 39 39 39 39 39 39 39
18 20 22 26 29 31 36 40 44 48 49 50 50 49 48 48 47 47 48 49 50 50 51 52 51 50 50 48 47 47 47 45 45 44 44 44 43 43 42 42 42 41 41 42 42 42 41 41 41
17 18 18 21 25 28 31 35 37 41 44 46 48 48 47 47 48 48 48 49 50 50 50 51 51 51 50 49 48 48 47 46 46 46 46 46 46 45 45 45 44 44 44 43 43 43 43 43 43
15 17 17 19 22 25 28 32 33 33 39 43 45 46 46 47 47 46 46 47 49 49 49 50 51 51 51 50 49 49 48 48 48 48 48 47 47 47 46 46 46 46 46 46 46 46 45 46 46
14 16 18 19 21 21 25 28 30 30 33 38 42 44 44 45 46 47 46 47 47 48 49 49 49 50 50 51 51 50 49 49 49 49 49 49 49 49 48 48 48 48 48 49 49 48 48 47 47
13 15 17 19 21 21 24 26 27 27 29 33 38 41 43 44 44 45 45 46 46 47 48 49 49 49 50 50 51 51 51 51 50 50 50 50 50 50 49 49 49 49 49 49 49 49 49 50 49
14 15 16 18 20 21 22 24 26 27 27 30 34 37 39 41 42 43 43 44 45 46 46 48 49 49 49 49 49 49 50 50 50 51 50 50 50 50 50 50 50 49 49 50 50 50 50 51 51
13 14 16 17 19 19 20 22 24 26 28 29 31 35 37 39 40 42 43 43 44 44 45 46 47 48 49 49 50 50 50 50 50 50 50 51 51 51 50 50 51 51 51 51 51 51 51 51 50
13 14 16 18 19 20 20 20 21 24 26 29 31 33 35 37 39 41 41 41 42 44 44 45 45 46 47 48 48 49 49 49 48 48 48 49 49 49 49 50 50 50 50 50 50 50 50 50 50

GEFSSGP_500_meanwind_108.txt.gz
Wind_Speed
53 55 56 59 61 64 63 60 56 52 50 49 47 47 45 43 40 38 35 32 30 27 25 23 21 19 17 16 14 13 12 11 9 8 8 7 7 6 5 5 4 4 4 4 4 4 3 3 2
53 55 57 60 64 65 62 58 56 53 51 50 50 48 46 44 42 39 36 33 31 29 26 24 22 20 19 17 16 14 13 12 11 9 9 8 8 7 6 6 5 5 5 5 4 4 4 3 3
51 55 58 61 64 64 59 56 54 54 53 53 52 50 48 45 43 40 37 35 32 30 28 26 24 22 20 19 17 16 14 13 12 11 10 9 8 8 7 6 6 6 6 6 5 4 4 4 4
50 55 58 61 63 60 56 54 54 55 55 55 54 52 50 47 44 42 39 36 34 32 29 27 25 23 21 20 19 17 15 14 13 12 11 10 9 9 8 7 7 7 7 6 6 5 5 5 5
49 53 58 60 60 57 56 55 56 57 56 55 55 53 51 48 46 43 40 37 35 33 31 29 27 25 23 21 20 19 17 15 14 13 13 12 11 10 9 9 8 8 8 7 7 6 6 6 6
48 52 57 58 56 54 56 57 57 57 57 55 55 54 52 50 47 44 42 39 36 35 33 31 29 26 25 23 21 20 18 17 16 14 14 13 12 12 11 10 9 9 9 8 8 7 7 7 7
46 51 54 55 54 54 55 57 57 57 56 56 54 54 52 51 48 45 43 41 38 36 34 32 30 27 26 24 23 21 20 18 17 16 15 14 13 13 12 11 11 10 10 9 9 8 8 8 8
43 48 50 53 52 52 53 56 56 57 55 55 55 54 53 51 49 47 45 42 40 38 36 34 31 29 27 25 24 23 21 20 18 17 16 15 15 14 13 13 12 12 11 11 10 10 10 9 10
40 45 46 49 51 51 52 55 56 57 56 55 55 54 54 52 49 48 46 44 41 39 37 35 32 30 28 26 25 23 22 21 19 18 17 16 16 15 15 14 14 13 13 12 12 12 11 11 11
37 41 41 45 49 50 51 54 55 57 56 55 56 55 54 53 50 48 46 44 42 40 38 36 34 31 29 27 26 24 23 22 21 20 19 18 17 16 16 16 15 15 14 14 14 13 13 13 13
35 37 40 44 47 47 50 53 54 56 57 54 55 55 54 52 50 49 46 43 42 41 39 38 36 33 30 28 26 25 24 23 21 21 20 19 18 18 17 17 17 16 16 16 16 15 15 15 15
34 35 39 40 44 45 47 51 53 55 56 54 54 56 55 52 49 46 45 45 43 42 40 39 37 34 31 29 27 26 25 24 23 22 21 20 20 19 18 18 18 18 18 18 18 17 17 17 17
33 34 35 38 41 44 45 48 52 53 54 55 55 56 55 52 50 47 46 45 46 43 42 40 37 34 32 30 28 27 26 25 24 23 22 22 21 21 20 20 20 20 20 19 19 19 19 19 19
32 34 33 36 39 42 45 44 48 52 53 54 56 57 56 55 52 50 48 45 46 45 42 41 38 36 34 31 30 28 28 27 25 24 24 23 23 22 22 21 21 21 21 21 21 21 21 21 21
31 34 33 35 38 39 43 46 46 51 53 54 57 56 56 56 55 52 50 48 45 45 43 42 41 39 36 34 32 30 29 28 27 26 25 24 24 24 23 23 23 22 23 23 23 23 23 23 24
29 31 32 34 36 37 40 44 45 50 52 53 56 57 57 56 56 54 51 49 47 45 44 42 41 41 39 37 35 33 31 30 29 28 27 26 25 25 25 24 24 24 24 24 25 25 25 25 26
27 28 29 31 34 36 39 42 45 48 51 53 56 57 57 56 55 55 53 50 48 46 45 42 43 43 41 40 38 35 34 33 31 30 29 28 28 27 27 26 26 26 26 27 27 27 27 28 28
25 26 27 29 31 34 38 41 44 47 49 52 55 56 56 56 53 53 52 50 48 47 46 44 42 44 43 42 40 39 37 35 34 33 32 30 29 29 29 28 28 28 28 29 29 29 30 30 31
22 26 26 25 29 32 36 40 43 46 49 51 54 56 56 56 54 53 52 51 50 49 48 48 45 44 43 42 41 40 38 37 36 36 34 33 32 31 31 30 30 30 30 30 31 31 32 33 33
18 23 24 23 26 30 34 37 40 44 47 50 52 54 55 56 54 52 51 53 52 50 49 48 49 46 44 43 42 41 40 39 39 38 37 36 35 34 33 32 32 32 32 33 33 34 34 34 35
17 20 22 23 26 28 30 34 38 42 45 48 50 53 53 53 53 53 52 51 51 51 51 50 49 47 44 44 45 44 42 41 40 40 38 38 37 35 35 35 35 35 34 35 36 36 36 36 37
16 17 19 22 25 27 29 30 35 39 42 46 48 51 53 52 52 53 52 52 51 49 50 50 49 49 46 45 46 45 44 42 41 41 40 41 40 39 37 37 37 36 36 36 37 38 38 37 37
14 16 17 17 20 23 26 28 31 37 38 42 46 49 52 51 52 53 52 53 53 50 50 49 49 48 48 48 47 45 45 44 43 42 41 41 40 40 40 40 39 38 38 37 38 38 38 39 39
11 12 13 15 17 19 22 26 29 34 37 39 43 46 49 51 51 52 52 53 53 52 51 49 49 49 48 48 46 45 46 45 45 44 44 44 43 42 42 40 39 39 38 38 38 39 40 40 41
9 10 11 12 15 17 19 23 25 30 36 39 41 44 47 50 52 51 51 52 52 51 51 50 50 50 49 48 47 46 46 46 46 46 46 46 45 44 44 43 41 40 40 40 41 41 42 42 43
6 8 9 11 12 14 18 21 23 26 31 36 39 41 45 48 51 51 50 51 51 50 50 51 49 49 50 49 48 48 47 47 46 46 46 46 46 45 45 44 44 43 44 44 43 44 44 45 45
5 6 7 9 10 11 15 18 20 23 27 31 35 38 42 46 48 48 50 50 50 49 48 48 48 48 48 48 48 48 48 47 45 45 45 46 46 46 45 45 45 45 45 45 46 47 47 47 46
6 6 7 7 9 11 13 14 17 21 23 28 31 34 37 41 44 45 46 48 48 48 47 47 48 47 47 48 48 49 48 46 45 45 45 45 45 45 45 45 44 44 45 45 45 45 46 45 45
7 7 7 8 9 10 11 13 15 17 20 24 27 30 33 38 42 44 44 45 47 48 48 48 47 47 48 48 48 48 48 47 46 45 44 44 45 47 47 46 46 46 44 44 46 47 46 46 46
7 8 8 9 9 11 12 13 15 16 18 21 24 27 30 34 38 41 42 43 45 46 48 48 48 48 47 48 47 47 48 48 46 45 44 44 45 46 46 46 46 47 47 47 47 47 47 46 46

GEFSSGP_500_meanwind_114.txt.gz
Wind_Speed
47 48 48 49 52 55 55 53 53 53 54 53 51 50 49 47 45 44 41 38 35 33 31 29 27 25 23 21 20 18 17 15 14 13 12 12 11 9 8 7 6 4 3 2 2 2 2 1 1
46 47 49 51 54 55 54 53 54 53 53 53 53 52 51 49 47 45 42 40 37 35 33 31 29 27 25 23 22 20 18 17 16 14 13 13 12 10 9 8 7 5 4 4 3 3 3 2 2
44 45 48 51 54 54 53 53 53 53 54 54 54 54 53 51 49 46 44 42 39 37 35 33 31 29 27 25 23 22 20 19 17 16 15 14 13 12 10 9 8 7 6 5 4 4 4 3 3
42 44 48 51 52 52 53 52 54 54 55 55 56 55 54 53 50 48 46 44 41 39 37 35 33 31 29 27 25 23 21 20 19 17 16 15 14 13 12 11 9 8 7 6 5 5 5 5 5
40 43 48 50 49 50 52 53 55 55 56 56 57 57 55 54 52 49 47 45 43 41 39 37 35 33 31 29 27 25 23 22 20 19 18 16 15 15 13 12 11 9 8 7 7 7 6 6 6
38 42 46 48 47 49 51 53 53 55 56 56 58 58 57 55 53 52 50 47 45 43 41 39 37 35 32 30 28 26 25 23 21 20 19 18 17 16 15 14 12 11 10 9 8 8 7 7 7
37 40 42 44 46 48 49 52 53 54 56 57 58 59 58 57 55 53 51 48 46 44 43 41 39 37 34 32 30 28 26 24 23 22 20 19 18 17 16 15 14 13 12 11 10 9 9 8 8
34 38 40 40 44 47 48 52 53 54 57 56 57 59 60 58 57 56 53 50 48 46 44 43 40 38 36 33 32 30 27 26 24 23 22 20 19 18 18 17 16 14 13 12 11 10 10 10 9
32 36 38 38 42 45 46 50 53 53 55 56 56 58 59 60 58 56 55 52 49 48 46 44 42 40 38 35 33 31 29 27 26 25 23 22 21 20 19 18 17 16 15 14 13 12 12 11 11
31 34 35 37 38 43 45 48 50 52 53 54 55 56 58 60 59 56 54 52 50 49 48 46 44 42 40 37 35 33 31 29 28 26 25 24 22 21 20 19 18 18 17 16 15 14 13 13 13
29 31 32 35 35 38 42 45 48 51 52 53 54 54 57 58 57 55 54 52 51 51 49 48 46 44 41 39 37 35 33 31 29 28 26 25 24 23 22 21 20 19 18 17 16 16 15 15 15
27 28 30 32 33 34 38 42 45 48 47 51 53 53 54 57 57 55 54 53 54 53 50 48 47 45 42 40 39 36 34 32 31 29 28 27 26 25 23 22 22 21 20 19 18 17 17 17 17
25 26 28 30 32 34 37 40 42 46 44 48 52 51 53 55 56 54 54 54 53 54 52 51 48 46 44 42 40 38 35 34 33 31 29 28 27 26 25 24 23 22 21 21 20 19 19 19 19
22 25 26 28 30 32 36 39 39 43 44 46 49 50 52 54 55 55 54 53 51 53 54 52 50 48 46 43 41 39 37 36 34 33 31 30 29 28 26 25 24 24 23 22 22 21 21 20 20
19 22 25 27 28 30 35 37 38 40 43 45 47 49 53 54 55 55 52 53 51 51 53 52 50 49 47 45 43 41 39 38 36 34 33 32 30 29 28 27 26 25 24 24 24 23 23 22 22
16 19 22 25 26 27 33 35 36 40 42 44 46 50 52 54 55 55 53 53 51 51 52 51 50 48 48 46 45 43 42 40 38 36 35 33 32 31 30 29 28 27 26 26 25 25 25 24 24
15 16 19 22 26 25 30 32 35 39 41 43 45 49 50 53 54 54 52 52 50 50 50 50 49 48 48 47 46 45 44 43 41 39 37 35 34 33 32 30 30 29 29 28 27 27 26 26 25
14 15 16 18 23 24 28 29 32 37 40 42 44 46 48 52 54 53 52 50 50 50 50 50 50 50 48 47 46 46 46 44 42 41 39 38 36 35 33 32 31 31 30 30 30 29 28 28 27
14 15 15 17 18 21 25 28 31 35 39 42 43 44 46 49 53 53 52 51 48 49 52 51 51 51 50 48 47 47 47 46 44 43 41 40 38 37 35 34 34 33 33 32 31 30 30 30 30
12 13 13 14 15 18 22 24 29 32 36 40 42 42 46 49 53 54 52 51 50 49 52 50 51 52 51 51 49 48 47 47 46 45 44 42 40 39 37 37 36 36 35 34 32 32 32 32 32
9 11 12 13 14 15 16 19 25 29 32 36 39 41 44 48 51 53 51 49 49 50 52 50 49 51 51 51 49 49 48 49 48 46 45 43 42 41 40 39 39 38 37 36 35 35 34 34 34
6 8 9 12 13 13 14 15 19 25 29 32 36 39 42 45 47 49 50 48 49 49 49 51 50 48 48 50 48 48 47 47 46 46 47 45 44 43 42 41 40 39 39 38 37 37 37 37 36
5 7 8 10 11 12 13 14 17 21 24 29 34 37 39 42 45 48 49 49 49 50 50 50 51 50 48 50 49 49 48 47 47 48 48 48 47 46 44 42 40 40 40 40 40 40 39 38 38
3 6 7 8 9 10 12 14 16 19 22 26 32 35 38 40 44 47 47 48 49 49 48 49 51 52 50 49 49 49 47 46 47 47 47 46 46 46 45 45 43 42 41 40 40 39 39 38 37
3 4 5 6 8 9 10 13 15 16 20 23 29 33 36 39 42 45 47 47 48 48 48 49 50 50 50 50 50 49 48 48 47 47 47 46 45 44 44 44 43 42 42 41 41 40 40 38 38
2 3 3 4 5 6 8 10 13 15 17 20 25 30 34 38 39 42 44 44 45 47 48 49 49 51 50 49 50 50 49 48 48 47 47 47 47 45 45 44 43 42 42 43 41 41 40 39 38
0 2 2 2 4 4 6 8 11 14 17 20 23 27 31 35 37 40 41 42 43 45 47 50 49 50 50 49 50 49 48 48 50 48 47 48 48 47 46 45 44 43 43 43 42 42 42 40 40
2 1 1 2 2 3 4 5 8 11 14 19 22 24 27 30 33 37 40 42 43 45 46 48 48 49 48 46 47 47 47 47 48 49 49 48 48 47 47 46 46 45 44 43 43 43 42 43 40
3 2 0 1 2 2 4 5 6 8 11 15 19 21 24 28 32 36 38 40 43 44 46 45 46 47 47 45 45 44 45 46 46 48 48 48 49 49 49 47 46 45 45 45 45 45 44 43 40
4 3 2 1 2 3 5 6 8 9 10 12 15 17 20 24 28 32 35 37 39 42 43 44 43 43 43 44 43 42 42 43 44 45 46 45 46 45 46 46 46 45 45 44 44 44 43 43 41

GEFSSGP_500_meanwind_120.txt.gz
Wind_Speed
46 47 47 48 50 52 51 46 45 44 43 42 43 44 43 43 44 46 46 43 39 37 36 34 32 30 28 27 24 22 20 19 17 16 15 14 14 13 12 11 9 8 7 6 5 4 4 3 3
45 46 47 50 53 54 51 47 47 46 45 45 45 46 45 45 46 48 47 45 42 39 38 36 34 32 30 28 27 24 22 21 19 18 17 16 15 14 13 12 11 9 8 7 6 5 5 4 4
45 47 48 50 53 53 51 49 49 48 48 47 47 48 47 46 47 48 47 45 43 40 39 38 36 34 32 30 29 26 24 23 21 19 18 17 16 15 14 13 12 11 9 8 7 6 6 5 5
45 46 49 52 53 52 52 50 50 49 50 49 48 49 49 49 49 49 48 46 45 42 41 40 38 36 34 32 30 29 26 25 23 21 19 18 17 16 16 15 14 12 11 10 9 8 7 7 6
43 45 48 51 52 50 51 50 50 49 49 49 50 51 51 50 49 49 50 47 45 44 42 42 40 39 37 35 32 31 29 27 25 23 21 20 19 18 17 16 15 13 12 11 10 9 9 8 8
42 44 47 48 48 48 49 49 49 51 51 49 51 52 52 52 51 51 52 50 46 43 43 43 42 41 39 37 35 32 31 29 28 25 23 22 21 20 18 17 16 15 14 13 11 10 10 9 9
39 41 43 43 43 44 45 46 48 49 49 50 51 52 51 53 51 52 52 51 48 46 45 44 44 43 41 39 37 35 33 31 30 27 25 24 23 21 20 19 18 17 16 14 13 12 11 11 10
37 38 38 40 39 39 42 45 46 48 49 49 51 53 51 53 50 51 53 53 49 48 47 46 45 44 43 41 39 37 35 33 31 30 27 26 24 23 22 21 20 18 17 16 15 14 13 13 12
34 35 35 37 38 37 40 43 43 46 47 49 50 52 53 54 52 52 52 54 50 49 49 47 47 47 45 43 41 39 37 35 33 32 30 28 26 25 23 22 21 20 19 18 17 16 15 15 14
32 33 33 34 36 37 39 42 41 45 46 49 50 50 53 53 54 54 54 55 53 50 49 48 47 48 47 46 44 41 39 37 35 34 32 30 28 26 25 24 23 21 20 19 18 17 17 16 16
30 30 30 33 36 36 38 40 40 45 46 45 48 49 50 53 54 54 53 55 54 52 50 50 50 49 49 48 46 44 42 39 37 35 34 32 30 28 27 26 24 23 22 21 20 19 19 18 17
29 29 30 31 34 34 36 37 39 43 46 45 46 48 50 52 55 56 55 55 55 53 51 51 52 51 51 50 48 46 44 42 40 37 36 34 32 30 28 27 26 25 24 23 22 21 20 20 19
26 26 27 29 32 33 34 37 35 38 44 46 47 47 50 50 54 56 55 56 56 55 54 52 53 52 51 50 50 48 46 45 42 40 38 36 34 32 30 29 28 27 25 25 23 23 22 21 20
23 24 25 26 30 32 34 34 35 35 40 43 45 46 47 50 52 54 54 56 57 57 55 53 53 53 52 52 51 50 48 47 45 42 40 38 36 34 32 31 30 29 28 27 25 24 24 23 22
19 20 20 21 25 27 30 31 31 32 37 41 42 45 48 49 51 53 53 56 57 58 56 54 55 54 54 52 52 51 49 48 47 44 42 40 38 36 35 33 32 31 30 28 27 26 25 24 23
16 15 14 15 19 22 24 26 28 30 34 39 41 42 47 49 49 51 53 56 56 57 56 55 54 55 53 53 52 52 51 50 48 45 43 41 39 38 37 35 34 32 31 30 28 27 27 26 25
14 12 12 13 16 18 20 19 23 27 30 35 39 40 43 47 49 50 51 54 54 55 57 55 54 54 53 53 52 50 50 51 48 46 44 42 40 39 37 36 35 34 33 31 30 29 28 27 27
11 10 11 11 13 15 17 17 18 22 26 30 35 38 40 44 48 49 49 52 54 53 55 56 55 54 53 52 52 50 50 50 49 47 45 44 42 40 39 37 36 36 34 33 32 31 30 30 29
10 9 9 8 10 12 14 14 14 18 21 25 31 36 39 41 44 46 49 51 53 53 54 55 54 52 51 51 50 49 49 49 50 49 48 45 44 42 41 40 39 37 36 35 35 34 33 32 32
8 7 7 8 9 11 11 11 11 14 19 23 26 32 37 40 44 46 46 46 48 50 52 51 52 52 51 49 49 48 47 48 49 49 48 47 46 44 42 41 40 39 38 38 37 36 35 34 34
5 5 5 6 6 7 8 8 9 12 15 21 24 28 34 37 38 40 44 44 44 47 50 50 49 52 52 50 49 50 49 49 48 48 49 48 47 45 44 43 43 42 41 40 38 37 36 37 35
3 3 4 4 4 4 5 6 8 11 12 16 20 24 28 32 36 36 38 41 42 45 46 45 48 50 51 50 50 49 50 48 47 47 47 48 47 45 46 46 45 44 43 42 40 39 39 38 37
3 3 3 3 3 3 3 5 5 8 11 13 16 20 24 27 31 34 35 37 39 42 44 42 45 49 50 48 48 47 49 48 48 48 48 48 47 47 47 47 47 46 45 44 43 42 41 40 39
3 2 3 3 3 3 3 4 3 6 9 12 14 16 20 25 28 30 31 34 36 38 41 43 42 45 48 49 47 48 48 46 46 47 48 48 48 48 48 48 48 48 47 45 44 43 43 41 40
2 1 1 1 1 2 3 4 3 6 7 7 9 11 15 20 24 27 29 32 33 34 37 40 40 41 45 47 47 46 47 46 46 47 48 48 47 49 49 49 49 49 48 48 47 46 44 43 42
3 2 1 2 1 1 2 4 4 5 5 6 7 9 12 16 20 24 28 31 32 32 35 38 39 40 43 45 44 44 43 47 47 47 47 47 46 47 48 49 49 49 49 48 48 47 46 45 44
5 3 2 3 2 1 2 4 5 6 6 7 8 10 12 14 18 23 27 30 30 30 31 33 37 39 40 43 44 44 44 46 46 46 45 46 46 46 46 48 48 48 48 48 48 48 47 46 44
5 4 3 4 3 3 3 4 4 5 5 7 9 11 12 13 15 18 23 26 28 29 30 30 32 34 38 42 43 43 43 46 46 44 42 42 43 46 46 45 45 46 46 47 47 47 47 46 45
8 6 5 5 5 4 4 3 3 4 5 6 9 11 13 14 15 16 18 23 26 28 29 30 31 33 34 36 39 41 41 43 43 43 42 41 41 42 43 45 45 45 45 45 45 46 46 46 46
9 9 7 6 5 6 5 4 4 5 5 6 8 10 13 14 15 16 18 20 23 26 28 30 31 33 34 35 36 37 38 40 42 42 42 42 43 44 45 46 46 46 46 47 48 47 47 46 46

GEFSSGP_500_meanwind_126.txt.gz
Wind_Speed
45 45 46 46 47 48 47 45 44 43 42 41 40 39 39 39 38 38 37 35 34 34 34 33 32 31 30 28 27 25 23 21 19 18 17 15 14 13 12 12 10 10 9 8 8 7 6 6 6
45 45 46 47 49 49 46 45 46 45 44 44 43 42 41 41 40 39 38 37 36 35 35 35 34 33 32 31 29 27 25 24 22 20 18 17 16 15 14 13 12 11 10 10 9 8 7 7 7
44 45 46 48 49 48 46 46 47 47 47 46 45 45 44 43 41 40 40 39 38 37 36 36 36 34 34 33 31 30 27 26 24 22 21 19 18 17 16 15 14 13 12 11 11 9 9 8 8
44 45 47 49 49 47 46 47 48 49 49 48 48 48 47 45 43 42 41 41 40 39 38 38 38 36 36 35 33 32 30 28 26 25 23 21 19 18 17 16 16 15 14 13 12 11 10 10 9
44 46 47 48 48 46 47 48 49 50 50 50 50 49 48 47 46 45 43 42 41 40 40 40 40 38 37 36 36 34 32 30 28 27 25 23 21 20 19 18 17 16 15 14 14 13 12 11 11
43 45 46 46 45 44 45 47 49 50 51 51 51 50 49 49 49 47 46 44 43 42 42 41 42 41 40 38 37 36 35 32 31 29 27 25 23 22 20 19 18 18 17 16 15 14 13 12 12
42 43 43 43 43 43 44 46 49 50 51 51 51 52 50 50 50 49 48 47 45 43 42 42 43 43 42 40 39 38 37 35 33 31 30 28 26 24 22 21 20 19 19 18 17 16 15 14 13
39 40 39 40 41 42 43 46 47 49 49 51 52 53 52 51 51 51 48 46 46 45 44 43 43 45 45 43 41 40 39 37 36 34 32 30 28 26 25 23 22 21 20 19 19 18 17 16 15
36 37 37 37 39 40 41 44 46 48 49 50 52 53 52 52 52 51 50 48 46 46 46 46 44 45 47 46 44 43 41 39 38 36 35 32 30 28 27 25 24 23 22 21 20 19 18 17 17
33 33 33 35 37 38 38 41 44 45 47 48 50 51 52 52 52 51 51 52 49 47 48 47 46 46 48 48 46 45 44 42 40 38 37 35 33 31 29 27 26 25 24 22 22 21 20 19 18
30 30 31 32 34 35 36 38 40 42 44 46 48 49 51 50 51 51 51 52 50 49 50 49 49 49 48 49 47 46 45 44 42 40 39 37 35 33 31 29 28 27 26 24 23 22 22 21 20
28 28 28 29 30 32 34 35 37 39 41 44 46 48 50 49 50 49 50 51 52 51 51 51 51 51 51 50 49 47 46 46 44 42 41 39 37 35 33 32 30 29 28 27 25 25 24 23 22
25 26 26 28 29 29 30 32 35 37 38 42 44 46 49 49 50 49 50 51 51 52 52 52 52 52 53 53 51 49 47 47 45 44 42 41 39 37 35 33 32 31 30 29 27 26 25 25 24
22 24 25 27 27 26 28 29 33 34 37 40 42 44 47 48 49 51 51 51 51 53 53 53 53 53 54 54 52 50 48 47 47 46 44 43 41 39 38 36 34 33 32 31 29 28 27 26 25
21 22 23 24 24 24 26 27 28 32 36 39 41 43 46 47 48 49 50 52 53 55 55 54 53 54 56 55 54 53 50 49 49 48 47 45 43 42 40 38 37 35 34 33 31 30 29 28 27
19 20 20 20 20 20 23 24 25 29 33 36 39 43 44 45 45 49 51 53 56 57 57 56 54 54 56 57 56 54 52 50 50 49 48 47 46 44 43 41 39 37 36 34 33 31 31 30 29
16 16 16 16 16 17 19 19 21 25 29 32 36 39 40 42 41 44 48 51 53 55 57 55 56 54 55 57 57 55 54 52 51 51 51 49 48 46 44 42 40 39 38 36 35 33 32 32 31
12 12 11 12 13 14 15 15 17 21 24 26 31 34 36 37 38 40 43 47 51 52 53 53 54 57 57 57 57 57 55 53 52 52 51 50 49 49 47 44 42 41 39 38 37 36 35 34 33
8 7 7 8 10 11 11 10 11 15 17 19 24 28 31 34 35 38 40 44 49 50 52 52 51 53 55 56 57 60 57 55 53 52 53 53 51 50 48 45 44 42 41 40 39 38 37 36 35
5 5 5 5 7 8 7 6 7 11 14 15 18 22 25 28 32 35 37 41 45 48 48 51 51 52 53 54 55 58 58 55 54 52 53 52 51 52 49 48 46 45 44 43 42 41 39 39 37
5 4 4 4 4 4 4 6 8 9 11 12 14 17 20 23 27 32 34 36 40 42 44 46 49 50 51 51 52 55 57 55 53 53 52 52 51 51 49 48 47 47 46 45 44 43 42 41 40
4 3 3 2 2 1 2 2 4 6 8 10 12 14 16 19 23 27 30 34 36 37 39 41 43 45 48 51 51 52 53 54 53 52 52 52 51 49 49 49 49 49 47 46 46 45 44 44 42
2 1 1 1 1 2 1 2 1 5 7 9 10 12 14 16 18 22 26 30 32 34 36 39 40 41 45 48 49 51 52 53 53 53 52 52 52 50 49 51 50 50 49 48 48 47 45 45 44
2 1 1 0 1 1 1 3 3 4 4 6 7 9 11 13 15 17 22 27 28 29 33 37 38 40 43 45 47 49 51 52 52 52 52 52 53 52 51 51 51 51 50 50 50 49 47 46 45
3 2 2 1 1 0 2 3 3 3 3 3 5 5 7 10 11 13 16 21 25 27 29 32 35 37 39 41 44 46 48 48 49 51 52 52 52 52 51 52 52 51 50 50 50 51 49 49 48
4 3 3 3 2 1 2 3 3 3 2 2 2 3 4 7 8 10 12 16 19 23 27 28 30 32 34 37 39 43 43 44 45 46 48 51 51 52 51 52 51 52 52 51 51 51 51 51 50
7 6 5 5 4 3 2 3 2 3 3 1 0 2 3 5 6 8 10 12 15 18 21 24 27 29 32 33 35 38 40 42 42 44 46 49 51 51 51 52 52 52 52 51 50 49 50 51 51
8 8 7 6 5 4 5 4 4 4 4 3 1 1 0 2 3 6 9 11 13 15 19 22 23 24 26 28 31 35 39 41 41 43 44 47 49 49 50 50 50 51 50 50 49 49 49 50 49
8 8 7 6 6 6 7 7 7 7 6 5 4 2 1 1 2 5 7 9 12 14 16 19 20 22 23 25 27 31 36 39 41 43 45 45 45 46 47 48 48 49 49 49 48 48 48 48 48
7 7 7 6 6 7 7 7 9 8 8 7 7 5 2 1 3 5 6 8 10 12 14 16 18 20 21 23 25 28 30 34 37 38 40 42 42 42 43 45 45 46 47 47 47 47 48 49 49

GEFSSGP_500_meanwind_132.txt.gz
Wind_Speed
40 40 41 42 44 45 44 43 41 40 40 39 39 39 38 38 37 36 35 33 32 32 31 31 30 30 29 29 27 26 25 23 21 19 17 15 13 12 10 10 9 8 8 7 7 7 6 6 6
41 42 43 44 46 47 45 43 43 43 42 42 42 41 41 40 39 38 37 36 34 33 33 32 32 31 31 30 29 28 27 25 23 21 19 18 16 14 12 11 11 10 9 9 8 8 7 7 7
41 43 45 46 47 47 46 44 45 45 45 45 44 44 44 42 41 40 39 38 37 35 34 34 33 32 32 31 30 30 29 27 26 23 22 20 18 16 15 13 13 12 11 10 10 9 9 8 8
41 43 45 47 46 46 46 47 47 47 47 47 47 47 46 45 44 42 41 40 39 37 36 35 34 34 34 33 32 31 31 30 28 26 24 23 21 19 17 16 15 14 13 12 12 11 11 10 9
41 43 44 46 46 46 46 48 49 49 49 48 49 49 48 47 46 45 44 43 42 40 38 37 36 36 35 35 33 33 32 31 30 29 27 25 23 21 20 18 17 16 15 14 13 13 12 11 11
41 42 44 45 45 46 47 48 48 49 49 49 49 49 49 48 47 47 46 45 44 42 40 39 38 37 37 36 35 34 33 33 32 31 30 28 26 24 22 20 19 17 16 15 15 14 14 13 13
40 41 43 44 44 44 44 46 46 47 47 47 48 49 49 49 49 49 49 48 46 45 43 41 40 39 39 38 37 36 35 34 34 33 32 30 28 27 25 22 20 19 18 17 16 16 15 15 14
38 40 41 42 41 41 42 43 44 45 45 46 48 49 48 48 49 51 51 50 48 47 45 44 42 41 40 40 39 39 37 36 35 35 34 32 31 29 27 25 23 21 20 19 18 17 17 17 16
37 38 38 38 39 38 39 41 42 44 44 45 47 49 49 49 50 51 52 52 51 49 48 47 45 44 42 41 41 41 40 38 37 36 36 35 33 32 30 28 25 23 22 21 20 19 19 18 18
35 36 36 36 37 37 38 39 40 42 44 45 47 48 50 50 50 51 52 52 52 51 50 49 48 46 45 43 43 42 42 41 39 38 38 37 35 34 32 30 28 26 24 22 21 21 21 20 20
33 33 33 33 34 35 36 37 38 40 42 44 45 47 49 49 49 51 52 53 52 52 51 51 50 49 47 46 44 44 44 43 41 40 40 39 37 36 35 33 30 28 27 25 24 23 22 22 22
31 31 31 31 31 32 33 34 36 38 40 42 44 46 48 49 49 50 52 53 52 52 52 52 51 50 49 47 46 46 46 45 44 42 42 41 40 38 36 35 33 31 29 28 27 25 24 24 24
29 29 28 29 30 30 31 32 33 34 38 40 41 43 46 47 48 50 52 54 53 53 53 52 52 51 49 47 47 48 48 47 46 45 44 43 42 41 39 37 35 33 31 30 29 28 26 26 26
27 27 27 27 28 29 29 29 29 29 33 36 38 40 43 43 45 48 50 52 54 53 53 53 53 52 52 50 49 48 48 49 48 46 46 45 44 42 41 40 38 36 34 33 32 30 29 27 27
24 25 25 25 27 28 28 27 26 28 30 32 35 37 40 41 42 45 47 49 51 52 52 52 53 52 52 51 51 50 51 52 51 48 47 47 46 45 43 42 41 38 36 35 33 32 31 29 28
22 22 22 23 25 26 26 24 24 27 28 29 31 33 36 38 40 42 44 46 49 51 51 51 52 52 52 52 51 51 51 52 52 50 49 49 48 47 46 44 42 41 39 37 35 34 33 32 31
20 21 21 22 24 24 24 22 23 24 26 27 27 28 30 33 35 39 42 44 46 48 49 50 52 54 53 52 50 51 52 53 53 52 51 50 49 48 47 46 44 43 41 39 38 37 36 34 33
18 19 19 20 21 21 21 21 20 21 23 24 25 27 28 30 32 34 37 40 44 47 47 48 50 52 53 53 53 54 53 54 54 53 52 51 51 49 49 48 46 45 43 42 40 39 38 37 36
16 16 16 16 17 18 18 19 19 19 21 22 23 25 27 28 30 32 35 36 41 44 46 48 50 50 50 52 54 54 55 54 55 55 53 52 52 51 49 49 48 47 45 43 43 42 41 39 38
12 12 12 12 13 13 13 14 15 17 18 19 20 23 25 26 26 28 32 34 36 40 43 45 48 48 48 48 50 52 54 55 55 56 54 53 53 52 51 50 50 49 47 46 45 44 43 42 42
8 9 9 9 10 10 10 10 11 13 14 16 17 17 20 23 26 26 28 30 33 37 39 41 43 44 45 46 48 50 51 53 55 56 55 55 54 55 54 52 51 50 49 47 46 46 45 44 45
6 7 7 7 8 7 8 8 8 10 11 13 14 15 16 19 22 24 25 27 30 33 36 39 40 40 40 42 45 46 48 48 51 53 54 54 54 55 54 53 52 52 51 49 48 48 47 47 47
5 5 5 5 5 6 6 7 6 8 10 11 12 13 13 14 17 18 20 23 26 29 32 34 36 38 38 39 43 45 46 48 50 51 53 54 54 55 55 54 53 52 51 50 49 49 49 48 48
4 4 4 4 4 4 5 6 6 6 8 8 9 10 11 12 13 14 15 18 21 26 30 31 31 33 35 37 39 43 45 45 47 49 49 51 52 53 54 54 54 53 53 53 52 50 50 49 49
3 3 4 3 3 4 5 6 7 7 6 6 7 8 9 9 9 11 13 15 17 20 24 26 27 29 32 34 35 39 43 43 43 45 47 48 49 50 52 54 53 52 52 52 52 52 51 51 50
2 2 3 2 2 4 4 6 7 7 6 6 7 7 6 6 6 7 9 10 13 16 19 21 22 26 29 31 33 35 38 41 41 44 46 47 48 48 50 52 53 53 52 53 54 52 51 51 51
1 1 1 1 2 3 5 5 6 5 5 6 7 7 5 5 4 4 6 7 9 12 15 17 19 22 26 29 31 32 34 37 40 42 45 47 48 48 48 50 51 52 52 53 54 55 53 52 51
1 1 1 1 3 4 5 5 6 5 4 5 5 5 4 4 3 3 3 4 6 9 11 14 17 20 22 25 28 31 32 33 35 39 41 44 46 47 48 49 50 52 53 53 52 54 55 55 54
1 1 2 2 3 4 4 5 5 6 6 5 4 4 4 3 3 3 3 3 5 6 8 10 13 17 18 21 24 28 31 33 34 36 39 41 44 45 47 48 49 51 52 53 53 52 53 55 55
1 2 3 3 2 3 4 4 4 6 6 5 5 4 4 4 4 4 3 3 2 3 5 7 10 13 16 18 20 24 28 31 33 35 38 41 44 46 45 45 46 47 50 51 52 52 53 54 55

GEFSSGP_500_meanwind_138.txt.gz
Wind_Speed
35 35 36 37 38 40 39 37 35 35 35 35 35 35 35 35 34 35 33 31 30 30 29 29 28 27 27 26 26 25 25 24 23 22 20 18 17 15 14 12 11 10 9 8 7 7 6 5 5
35 36 37 39 40 41 41 39 39 38 38 38 38 38 38 38 37 36 35 33 32 32 31 30 30 29 28 28 28 27 26 26 25 24 23 21 19 18 16 14 13 12 11 9 9 8 8 7 6
36 37 38 39 41 42 42 41 41 41 41 41 41 41 41 40 40 39 38 37 35 35 34 33 32 31 30 29 29 29 28 27 26 26 25 23 22 20 18 17 15 14 13 11 10 10 9 9 8
35 37 39 40 41 41 43 43 44 44 44 44 44 44 44 43 42 41 41 40 39 38 37 35 34 33 32 32 31 30 30 29 28 27 26 25 24 22 21 19 18 16 15 14 12 12 11 10 10
35 36 38 39 41 42 43 44 45 46 46 46 47 47 46 45 44 43 43 43 42 41 40 38 37 36 34 34 33 32 31 31 30 29 28 27 26 25 23 21 20 19 17 16 15 14 13 12 12
34 35 36 38 39 41 43 44 45 47 47 47 48 48 47 46 46 45 45 45 45 44 43 41 39 38 37 36 35 34 33 32 31 30 30 29 28 26 25 24 22 21 19 18 17 16 15 14 13
34 34 35 36 37 39 40 42 43 44 46 46 47 48 46 46 47 47 46 46 46 47 46 44 43 41 39 38 37 36 35 34 33 32 31 31 29 28 27 26 25 23 22 20 19 18 17 16 15
33 34 35 35 36 37 37 38 39 40 42 43 44 46 45 46 47 47 47 47 47 48 48 47 46 44 42 41 39 38 38 36 35 34 33 32 31 30 29 28 27 25 24 22 21 20 19 18 17
33 33 34 34 35 36 36 36 37 38 39 41 43 45 45 46 47 47 47 48 48 49 49 49 48 47 45 43 42 41 39 38 38 36 35 34 33 32 31 29 28 27 26 25 23 22 21 20 19
33 33 33 33 34 34 35 35 35 36 37 39 41 43 44 45 46 47 48 48 49 50 51 51 51 50 48 46 44 43 42 40 39 38 37 36 35 34 33 32 30 29 28 27 25 24 23 22 21
32 32 32 32 32 33 33 33 34 35 36 38 39 40 42 44 45 47 48 49 50 51 52 51 52 51 50 48 47 46 44 41 40 40 39 38 37 36 34 33 32 32 31 29 28 27 26 24 23
30 30 30 31 31 31 32 33 33 34 36 37 38 39 41 43 44 45 46 48 49 50 52 52 52 52 51 50 48 47 46 44 42 41 41 40 39 37 36 35 34 34 33 32 31 30 28 27 26
29 29 30 30 30 31 31 32 33 33 35 37 39 40 41 42 43 44 46 47 49 50 52 52 53 53 52 51 50 49 48 47 45 43 43 42 41 40 39 38 36 35 35 35 33 32 31 29 28
28 28 28 29 30 30 30 31 32 32 34 35 37 38 39 40 41 43 45 47 48 51 53 53 53 53 53 52 51 50 50 48 46 45 44 44 43 42 41 40 38 37 36 36 36 35 34 32 30
26 26 27 27 29 30 30 30 30 31 32 32 33 35 36 38 39 40 42 44 47 49 51 53 54 54 54 53 52 51 51 50 49 47 46 46 44 43 42 42 41 39 39 38 38 37 36 34 32
25 25 25 26 27 28 28 28 29 29 30 29 30 31 32 34 35 37 39 41 45 48 50 53 54 55 55 54 53 52 52 51 50 49 48 47 46 45 45 44 44 43 41 40 40 39 38 37 35
22 22 23 24 24 25 26 26 26 26 26 27 26 26 28 29 31 33 35 37 39 43 47 50 52 53 54 54 54 53 52 53 52 51 50 49 47 47 47 46 47 45 43 42 42 41 40 39 38
18 19 19 20 20 21 22 22 22 23 23 23 23 24 25 26 27 29 30 32 35 38 41 44 47 50 52 53 54 54 52 52 52 52 51 49 48 48 48 47 47 47 46 45 43 43 42 41 41
16 15 15 15 15 16 17 17 19 20 21 21 21 22 23 23 24 25 27 29 31 33 35 38 42 46 49 50 51 52 53 53 52 52 52 51 49 49 48 49 48 48 48 46 45 44 43 42 42
12 12 12 12 13 15 15 14 15 17 18 19 19 19 20 20 21 22 24 26 28 30 31 34 39 42 44 47 48 50 52 53 53 52 53 52 51 51 49 48 48 48 48 48 47 47 46 46 44
11 11 11 11 11 12 12 13 13 14 14 15 15 16 17 19 20 21 22 23 25 28 30 32 36 39 41 44 45 47 51 53 53 52 51 52 51 50 49 49 50 49 50 50 50 50 48 48 47
9 9 9 9 10 10 10 10 11 12 13 13 14 15 15 16 17 18 21 23 24 25 28 31 33 37 40 43 45 46 48 51 52 51 51 52 51 50 51 51 52 51 52 52 52 52 50 49 49
8 8 8 8 8 8 8 8 9 10 11 11 12 13 14 15 15 15 18 20 23 24 26 28 30 34 38 41 42 44 45 47 49 50 51 51 51 51 52 52 52 53 54 54 53 53 53 51 50
6 6 7 7 6 6 6 7 6 7 9 10 10 11 13 13 13 13 14 15 18 20 23 25 27 30 34 36 39 40 42 44 46 47 49 50 50 50 51 53 53 52 53 54 54 54 54 53 52
4 5 5 4 4 4 5 6 6 6 7 9 9 9 10 11 11 11 11 13 14 16 18 21 23 26 30 32 35 37 39 42 43 44 46 48 49 49 50 51 52 53 54 55 56 57 56 54 54
5 4 4 3 4 4 5 5 5 6 7 7 7 7 7 7 8 10 10 10 10 12 13 16 19 21 24 28 31 34 35 38 41 42 43 45 47 47 48 49 50 50 51 53 55 55 55 54 54
4 3 3 4 4 5 5 5 5 6 6 6 5 5 5 6 7 7 7 7 8 10 11 13 16 18 19 23 28 30 32 34 37 39 41 43 45 46 46 47 47 49 50 52 54 55 55 56 55
3 3 3 3 4 5 5 5 5 5 4 4 4 5 5 4 4 5 5 6 7 8 9 11 13 15 17 20 24 27 30 32 33 34 36 39 40 43 45 47 48 49 51 52 53 55 56 57 57
3 2 2 3 4 5 6 6 5 5 5 5 5 5 5 4 4 4 4 5 5 5 6 8 9 11 13 15 19 23 26 30 32 32 34 35 37 38 41 44 47 48 49 51 53 54 55 57 57
2 2 2 3 4 5 6 5 5 5 5 4 4 4 3 3 4 3 3 2 3 5 6 6 7 9 11 13 16 18 21 25 27 29 29 32 34 36 39 41 43 45 48 50 51 53 55 57 58

GEFSSGP_500_meanwind_144.txt.gz
Wind_Speed
32 33 33 34 35 36 35 34 34 33 34 33 32 32 33 34 34 35 33 31 29 28 28 27 27 27 27 26 25 24 23 22 22 21 21 20 18 17 15 14 13 12 11 11 10 9 8 8 7
31 33 34 35 36 37 36 36 37 37 36 35 35 35 35 36 36 37 35 34 32 31 31 30 29 29 29 28 28 27 26 24 23 22 22 21 20 20 18 17 15 14 13 12 12 11 10 9 9
32 33 35 36 36 37 37 39 40 39 38 37 38 38 39 38 38 38 38 36 35 34 33 33 32 31 31 30 30 29 28 27 25 24 23 22 21 21 20 19 18 17 15 14 13 13 12 12 11
33 34 35 36 36 36 38 39 41 39 40 40 40 40 41 40 40 40 40 39 38 37 36 36 35 34 33 32 32 31 30 29 28 26 25 24 23 22 22 21 20 19 18 17 15 15 14 14 13
34 34 35 35 35 36 38 39 41 39 40 41 41 42 42 43 43 42 42 41 41 40 39 38 37 36 35 34 34 33 32 31 29 28 26 26 25 24 23 23 22 20 20 19 18 17 16 15 14
34 34 35 34 35 36 37 38 40 40 40 42 43 43 44 43 44 44 43 43 42 42 42 41 40 39 38 37 36 35 34 32 31 30 29 27 27 26 25 24 24 23 21 21 20 19 18 17 16
35 34 35 35 35 37 37 37 38 39 40 41 42 43 43 43 43 44 43 43 43 43 43 42 42 42 41 39 38 37 36 34 33 32 31 30 29 28 27 26 25 25 24 23 22 21 20 19 18
36 36 35 35 35 37 37 37 38 38 39 40 41 42 43 42 42 43 43 43 43 43 44 43 43 43 42 42 41 40 39 37 35 34 33 32 31 30 29 28 27 26 26 25 24 23 22 21 21
36 36 35 35 36 36 36 36 37 38 38 39 40 41 41 41 41 42 43 43 43 43 44 44 44 44 44 44 44 43 41 40 38 36 35 35 33 32 31 30 29 28 28 26 26 25 24 23 23
34 34 34 34 35 35 35 35 36 36 37 38 39 40 40 41 41 42 43 43 44 44 45 45 46 46 45 45 45 45 44 42 41 39 38 37 36 34 33 32 31 30 29 29 28 27 26 25 25
32 33 33 34 34 34 35 35 36 36 37 38 39 38 39 39 40 41 43 44 45 46 46 47 48 47 47 47 47 46 45 44 43 41 40 40 39 36 35 34 33 32 31 30 29 28 28 27 27
32 32 33 34 34 34 35 35 35 36 36 37 38 38 39 40 40 41 43 45 46 47 46 47 48 48 49 48 48 47 46 45 45 44 42 42 41 39 38 36 35 33 33 32 31 31 30 29 28
31 32 32 33 33 33 34 34 35 35 35 36 36 37 39 40 41 42 43 44 46 47 47 46 47 48 49 49 49 48 47 46 46 45 45 44 43 42 40 39 37 36 34 33 33 33 32 32 31
31 31 31 31 32 32 33 33 34 33 35 35 35 36 37 37 39 41 42 43 44 45 46 47 47 48 49 50 50 49 48 47 47 46 45 44 43 43 42 41 40 38 37 36 35 34 34 34 33
30 30 30 30 30 31 31 32 32 32 33 33 34 35 35 36 36 38 40 40 41 43 44 46 47 48 49 49 49 49 48 48 48 48 47 46 45 44 43 43 42 41 40 39 38 37 36 35 35
28 28 28 28 28 28 29 29 29 30 30 31 32 32 33 34 34 35 37 38 39 40 42 43 45 47 48 50 49 49 49 48 49 48 48 47 47 46 46 44 43 43 42 41 39 39 38 37 37
25 25 25 25 25 25 26 26 26 27 28 29 29 29 30 31 33 34 35 36 37 38 39 41 44 47 47 48 50 50 50 50 50 49 49 49 47 47 46 46 46 45 44 42 41 40 40 39 38
22 23 23 24 23 24 24 24 24 24 25 26 27 27 28 28 29 31 33 33 34 35 37 39 43 47 48 48 50 50 51 52 51 51 50 51 49 48 48 48 47 46 46 44 43 42 41 41 40
20 21 22 23 22 21 22 22 22 23 23 24 25 25 25 26 25 27 29 30 31 33 34 36 40 44 47 47 48 49 50 51 51 51 51 51 50 50 50 50 49 48 47 46 45 43 43 42 42
19 20 21 21 20 20 20 20 20 20 21 22 23 24 24 25 25 25 25 26 28 30 32 33 35 38 42 44 45 45 45 48 50 50 50 50 51 51 51 50 50 50 49 49 47 45 44 43 43
17 18 19 18 18 19 19 18 18 18 18 19 20 21 22 23 23 23 23 24 25 27 28 30 32 34 37 40 43 44 44 46 48 49 49 49 51 52 51 50 50 50 50 50 48 47 45 44 44
15 15 15 15 15 15 16 16 16 17 16 17 18 19 19 20 21 21 22 23 23 24 26 27 29 31 35 38 39 42 44 46 46 47 48 48 49 50 50 49 50 50 50 49 49 49 47 45 45
12 12 12 12 13 13 13 15 15 15 15 16 17 19 19 19 20 21 21 22 23 24 25 26 27 29 32 35 36 38 40 42 44 44 45 47 47 48 48 49 49 49 49 49 50 50 49 49 49
10 11 11 11 11 12 12 14 14 15 15 15 16 16 17 18 18 19 20 21 22 22 23 24 26 27 28 31 34 36 37 39 41 42 42 44 45 47 46 47 48 47 48 49 49 49 50 50 50
8 9 9 10 11 11 11 12 13 14 14 14 15 16 17 17 17 17 18 19 19 20 21 22 23 24 26 28 32 34 35 37 39 39 41 41 43 45 45 45 46 45 47 47 47 49 49 50 49
7 8 8 9 10 10 10 11 12 13 13 14 15 15 16 17 17 16 16 16 17 17 18 20 21 22 24 25 27 29 31 32 34 36 39 40 41 42 43 44 44 44 45 46 47 47 48 49 49
7 7 7 9 10 11 10 10 10 11 13 14 15 15 15 15 15 15 15 16 17 17 17 18 19 19 20 22 23 24 26 28 30 32 34 35 38 40 42 42 43 43 45 45 46 47 47 48 49
7 7 8 8 10 10 10 11 11 11 13 14 14 15 14 14 14 15 15 14 15 15 15 15 16 17 16 17 19 21 23 25 28 30 31 32 34 37 39 40 40 42 44 46 47 47 48 49 49
8 7 8 9 10 11 11 11 11 11 12 12 13 13 13 13 13 12 12 12 11 12 12 12 13 14 15 16 17 19 21 24 26 28 29 31 31 34 37 39 40 41 44 44 45 46 49 50 51
7 8 9 10 11 11 12 12 11 11 11 11 12 11 11 11 12 11 10 10 10 9 9 9 10 11 12 12 14 17 19 22 23 25 27 29 31 32 35 38 39 40 42 43 44 46 48 50 51

GEFSSGP_500_meanwind_150.txt.gz
Wind_Speed
30 31 31 31 32 32 31 30 31 31 30 30 29 29 29 29 29 29 27 25 24 23 23 22 23 23 23 23 22 22 21 20 19 19 18 17 17 16 16 15 13 12 12 11 10 10 10 10 9
30 31 31 32 33 33 31 31 32 32 32 32 32 31 31 30 30 30 29 28 27 26 26 25 25 25 25 25 25 24 24 23 22 21 20 19 18 18 17 17 16 15 14 13 12 12 12 11 11
32 32 32 32 33 32 32 32 33 33 33 34 34 33 33 32 32 32 31 31 30 30 29 29 28 27 27 27 27 27 26 26 25 24 22 22 21 19 19 19 18 17 16 16 15 14 13 13 13
34 34 33 33 32 32 33 33 34 34 34 34 35 35 35 35 34 34 34 34 33 33 32 32 31 30 30 30 29 29 29 28 27 26 25 24 23 22 21 20 20 19 18 18 17 16 15 15 15
35 35 34 33 32 33 33 34 34 35 34 35 35 35 35 36 37 37 37 36 36 35 34 34 34 34 33 32 31 31 31 30 29 28 27 26 26 25 23 22 22 21 20 19 19 18 17 17 16
36 36 36 34 33 33 34 34 34 35 35 35 35 36 36 37 38 38 38 38 38 37 36 36 36 35 35 35 34 33 33 32 31 31 30 28 27 27 25 24 23 23 22 22 20 20 19 18 18
36 36 35 34 34 33 33 33 33 33 34 34 35 36 36 36 38 39 39 39 39 39 38 38 38 38 37 37 36 35 35 34 33 32 31 30 29 28 27 26 25 24 24 23 22 21 21 20 20
36 36 35 34 33 33 33 33 32 32 33 33 33 34 34 35 36 38 40 40 40 40 40 40 39 39 39 39 38 38 37 36 35 34 34 32 31 30 29 28 28 27 26 25 24 23 23 22 21
35 35 34 33 32 33 33 33 33 33 33 33 33 33 33 34 35 36 38 40 40 40 40 40 40 40 40 40 40 39 39 38 37 36 36 35 34 32 31 31 30 29 28 27 26 25 25 24 23
35 35 33 32 32 33 32 32 32 33 34 34 34 34 34 34 35 36 36 38 39 39 40 40 41 41 41 41 41 41 41 40 39 39 38 38 36 35 34 33 32 31 30 29 28 27 27 26 25
34 34 33 32 32 32 32 31 31 32 33 33 34 34 34 35 35 36 37 38 39 40 41 42 41 42 42 42 42 42 42 42 41 40 40 40 39 37 36 35 34 33 32 31 30 29 28 28 27
33 33 32 32 31 31 31 31 31 31 32 33 33 34 35 36 36 37 37 38 39 40 41 42 43 43 43 43 43 43 43 43 42 41 40 40 40 39 38 37 36 35 35 34 33 31 30 30 29
31 31 32 32 31 31 31 31 31 31 32 33 33 34 34 35 36 37 38 39 39 40 41 43 44 44 44 45 45 44 44 44 43 43 42 41 40 39 39 38 38 37 36 35 35 34 33 32 31
28 29 30 31 31 31 31 31 31 31 32 32 32 32 32 32 33 35 36 37 39 40 42 43 45 45 46 45 45 45 45 45 45 44 44 43 42 41 40 39 39 38 37 37 37 36 35 34 33
28 28 29 30 30 30 30 30 30 30 31 31 31 31 31 31 32 33 34 35 37 38 40 42 44 46 47 47 46 46 45 46 46 46 45 45 44 42 42 42 41 39 39 38 38 39 38 36 35
27 27 27 27 27 27 28 28 28 29 29 30 30 30 30 30 30 32 33 34 35 37 38 41 43 45 47 48 47 47 47 47 48 47 46 46 45 44 44 43 42 41 41 41 41 40 40 39 37
25 25 25 25 25 26 27 27 27 28 28 28 28 28 28 28 29 30 31 33 35 36 37 38 41 43 45 47 48 48 48 49 49 49 48 47 46 46 46 44 44 43 42 43 42 42 42 40 39
22 22 22 22 23 24 25 26 26 27 27 27 27 28 28 27 28 28 29 31 33 35 36 37 38 40 43 45 47 47 48 49 50 50 49 49 47 46 47 46 44 44 44 44 44 43 42 41 40
20 20 20 20 21 22 23 24 25 25 25 26 26 26 27 27 28 28 29 30 32 33 34 34 36 38 41 44 46 46 47 48 49 50 51 50 49 48 48 47 46 46 46 46 45 44 43 42 42
18 18 19 19 19 19 20 21 22 23 24 24 25 26 26 26 27 28 29 29 29 30 30 31 32 35 37 39 41 43 46 47 49 51 51 51 50 50 49 49 49 48 48 48 46 45 45 44 44
15 16 16 16 16 17 18 18 19 20 21 22 23 24 24 24 25 27 27 26 27 26 27 29 31 33 35 37 40 41 44 46 48 49 50 50 50 50 50 50 51 50 50 50 49 48 47 46 46
12 14 14 14 15 15 16 16 17 18 19 20 21 21 22 23 23 23 23 23 24 25 26 26 27 30 33 36 38 40 43 44 45 46 47 48 49 49 50 51 51 51 51 50 51 50 49 48 48
10 11 12 13 14 14 15 16 16 17 18 18 18 19 20 21 21 21 21 21 22 23 24 25 26 28 30 32 35 37 38 39 41 43 43 45 47 49 48 49 50 51 51 50 51 51 50 49 48
8 9 10 11 12 13 13 14 14 15 16 17 17 18 18 19 19 20 20 20 21 22 23 24 25 26 27 28 30 32 34 36 38 39 40 42 44 46 46 46 48 49 49 49 49 49 48 48 48
7 8 8 9 9 10 11 12 13 14 15 15 16 16 16 16 18 18 19 20 20 20 22 23 23 24 24 25 27 29 32 35 37 38 40 41 42 43 43 45 45 46 47 48 48 48 49 49 48
6 7 8 9 9 9 10 12 12 13 14 14 14 15 15 15 16 17 17 18 19 20 20 21 22 23 24 25 25 26 28 30 32 34 36 38 39 40 41 42 42 43 45 47 47 47 48 49 49
7 7 8 9 10 10 10 11 12 12 13 13 13 14 14 14 14 14 15 16 18 18 18 18 19 21 22 23 24 24 25 27 29 32 34 36 37 38 39 41 42 42 43 45 47 47 48 49 50
7 7 8 9 10 11 10 11 12 12 12 12 13 14 13 13 13 14 15 15 16 17 16 15 16 17 18 20 21 22 24 25 27 28 29 31 33 35 37 39 39 41 43 45 47 47 47 49 50
7 8 9 10 10 11 11 11 12 12 12 13 13 13 13 14 15 15 15 16 16 16 16 15 15 15 15 16 17 19 21 22 23 25 27 29 30 32 35 38 38 39 41 44 46 45 46 48 48
9 10 10 11 12 12 13 12 13 13 13 14 14 14 14 15 15 15 15 14 14 14 14 14 14 14 14 15 15 16 18 21 22 24 26 28 29 31 33 34 36 37 39 41 44 45 45 47 47

GEFSSGP_500_meanwind_156.txt.gz
Wind_Speed
33 33 34 34 34 33 32 30 29 28 28 28 28 28 27 27 27 26 25 24 24 23 23 22 22 22 22 22 21 20 19 18 17 16 15 14 13 12 12 11 11 10 10 10 9 9 9 8 8
34 34 34 35 35 34 32 31 30 30 30 30 29 29 28 28 27 27 26 26 26 26 25 25 24 24 23 23 22 22 22 21 20 19 18 17 16 15 14 13 12 12 12 12 11 10 10 10 10
35 35 35 35 35 34 32 32 31 31 31 31 31 31 30 30 29 28 27 27 28 28 27 27 27 26 25 25 24 24 23 23 22 21 21 20 19 17 16 16 15 14 14 13 13 13 12 12 12
36 36 36 35 34 33 33 32 32 31 32 32 32 32 32 32 31 30 29 29 29 29 30 29 29 28 28 28 27 26 25 25 24 23 23 22 21 20 19 18 18 17 16 15 15 15 14 14 14
37 37 36 35 34 32 32 32 32 32 32 32 32 32 32 33 33 33 32 31 31 31 31 31 31 31 30 30 30 29 28 27 26 26 25 25 24 23 22 21 20 19 19 18 17 17 17 16 15
37 37 37 35 34 33 32 32 32 32 32 32 32 32 32 32 33 33 34 33 33 33 33 33 33 33 33 32 31 31 31 30 29 28 27 27 26 26 25 24 23 22 21 20 19 19 19 18 17
38 37 36 35 34 33 31 31 31 31 31 31 32 32 32 33 33 34 34 35 35 35 35 35 36 36 35 35 34 33 33 33 32 31 30 29 28 27 27 26 25 24 23 22 21 21 20 20 19
37 37 36 34 33 33 31 31 31 31 31 32 32 32 33 33 34 34 34 35 35 35 36 37 37 37 37 36 36 35 35 34 34 34 33 32 30 29 29 28 27 26 25 25 24 23 22 22 21
37 37 36 34 34 33 32 31 31 30 31 31 31 32 32 32 33 34 34 35 35 36 36 37 37 38 38 38 37 37 36 36 35 35 34 33 32 31 30 29 29 28 27 27 26 25 24 24 23
36 36 36 35 35 34 33 32 31 31 31 30 30 31 31 32 33 34 35 35 35 35 35 37 37 38 39 39 38 38 37 37 36 35 35 34 34 33 32 30 30 30 29 29 28 27 26 25 25
35 35 35 35 35 34 33 33 33 32 32 32 31 31 32 32 33 34 35 36 35 35 35 36 37 38 39 39 39 39 38 38 37 37 36 36 35 34 33 32 32 31 31 31 30 29 28 27 26
34 34 34 34 34 34 34 34 34 34 33 33 33 33 33 33 34 35 35 36 36 36 36 36 37 38 38 39 39 40 40 40 39 38 38 38 37 36 35 34 34 33 33 32 31 30 30 29 28
33 32 32 32 33 33 33 33 34 34 34 34 34 34 34 34 34 34 35 36 36 36 36 37 37 38 39 39 39 40 40 41 40 40 40 40 40 39 38 37 36 35 35 35 34 33 32 31 31
30 31 32 31 32 32 32 32 33 33 33 33 33 33 34 34 34 34 34 35 35 36 37 37 37 38 40 40 41 41 42 42 42 43 43 43 43 42 40 39 38 37 36 37 38 36 34 34 33
28 29 30 30 30 31 31 31 31 31 31 32 32 32 32 32 33 33 33 34 35 35 36 37 38 39 40 41 42 43 43 43 44 44 44 45 45 44 42 41 40 40 39 39 39 38 37 37 36
26 28 29 29 29 29 30 29 30 30 31 31 31 31 31 31 31 31 32 33 33 34 34 36 38 39 39 41 42 44 45 45 45 45 45 45 46 46 45 44 43 43 42 41 41 40 39 38 38
25 26 27 27 28 28 28 28 29 30 30 31 31 31 31 31 31 31 32 33 33 34 35 35 36 38 39 40 42 44 44 46 46 46 46 47 47 48 48 47 45 45 44 44 43 41 41 40 39
23 24 24 25 25 26 27 27 28 29 30 30 31 31 31 31 31 32 32 32 33 34 34 35 36 37 38 40 41 42 44 45 46 47 47 47 48 49 49 48 47 47 46 45 44 44 42 41 41
22 23 22 23 24 25 25 26 26 27 27 28 28 29 30 30 30 31 31 32 33 34 35 36 36 36 37 39 40 41 42 44 45 45 46 47 48 49 50 50 49 48 48 47 46 45 44 43 42
19 20 21 22 23 23 23 23 24 25 25 26 26 27 28 29 29 30 30 32 33 33 34 35 36 36 36 38 40 41 42 43 44 44 45 46 47 49 51 51 50 49 49 48 48 47 47 45 44
15 17 18 19 20 20 21 21 22 23 24 25 25 26 27 28 28 28 29 30 31 32 33 33 34 35 36 37 38 40 41 41 42 44 44 44 45 47 49 51 51 50 50 51 50 50 50 49 47
12 14 15 17 18 18 19 20 20 22 23 23 24 25 26 27 27 27 28 29 30 30 31 32 33 34 34 34 35 37 39 41 42 42 43 44 45 46 47 49 50 51 50 50 51 50 51 51 49
12 13 14 15 16 18 19 21 20 21 22 23 24 25 26 26 27 27 27 28 29 28 29 30 31 31 31 33 33 34 36 38 40 41 43 44 45 46 47 49 49 50 51 50 51 50 51 51 51
11 13 14 15 16 17 18 20 20 21 21 22 22 23 25 26 26 26 26 27 27 27 28 28 29 29 30 31 32 32 33 35 37 39 40 41 41 42 44 47 48 49 50 51 51 50 50 50 50
11 12 13 14 15 16 16 18 18 19 20 21 21 22 24 24 25 25 25 25 26 26 26 26 27 27 28 28 29 30 31 32 34 36 38 39 39 39 41 43 45 47 47 49 49 48 48 49 49
10 12 13 15 15 14 15 16 17 18 18 19 20 22 22 23 24 26 26 25 25 25 25 26 26 26 26 27 28 28 29 30 32 33 35 36 36 37 39 42 44 45 47 48 47 47 47 47 47
11 12 13 14 14 14 14 15 16 17 17 18 19 20 21 22 23 25 25 25 25 25 25 26 26 26 25 26 27 27 28 27 28 30 31 33 36 37 38 39 40 41 44 45 45 43 43 43 45
11 12 12 13 14 15 14 14 15 16 16 17 18 20 20 21 22 23 24 25 25 25 25 25 25 25 25 26 27 26 25 25 26 28 30 31 33 35 37 38 39 40 40 40 40 41 40 41 42
12 13 14 15 16 16 16 14 16 16 16 17 18 19 20 21 21 22 23 24 25 25 25 24 24 25 24 24 24 24 24 25 25 25 27 27 29 31 33 35 37 37 37 38 39 40 40 39 40
13 13 15 16 17 17 17 16 17 17 17 18 19 19 20 20 20 21 23 23 23 23 24 25 25 25 25 24 24 23 24 25 24 25 26 27 28 28 30 31 33 34 35 37 38 39 39 39 40

GEFSSGP_500_meanwind_162.txt.gz
Wind_Speed
36 36 35 35 35 35 34 32 30 28 27 27 27 26 25 25 24 23 22 22 21 21 22 22 22 22 21 20 20 20 19 18 18 17 16 15 15 14 14 13 12 11 10 10 9 9 9 9 9
36 37 37 37 37 36 35 33 30 29 29 28 28 27 27 26 26 25 23 23 22 22 22 23 23 23 23 23 22 22 21 20 20 20 19 18 17 16 16 15 14 13 12 12 11 11 11 10 10
37 37 38 38 38 36 35 33 31 30 30 29 29 28 28 27 26 25 25 24 23 23 23 24 24 24 25 25 25 24 24 23 23 22 21 21 20 19 18 18 17 16 15 15 14 13 13 12 12
37 38 39 39 38 36 35 34 32 31 31 30 30 30 29 28 27 26 26 26 25 25 25 25 25 25 25 25 26 26 26 26 25 25 24 23 23 22 21 20 19 19 18 17 16 16 15 14 14
38 39 39 38 37 37 36 34 33 32 31 31 31 30 29 28 28 27 26 26 27 26 26 26 26 26 26 26 26 27 27 27 27 27 26 25 24 23 23 23 22 21 20 20 19 18 17 17 16
37 38 38 37 37 36 35 34 33 32 31 31 31 31 30 29 28 28 27 27 27 28 28 28 28 28 28 28 27 27 27 27 27 28 28 27 27 25 25 25 24 23 23 22 21 20 20 19 18
36 37 37 37 36 36 35 34 33 33 32 31 31 31 31 30 30 29 29 29 29 29 29 29 29 29 29 29 29 28 28 28 28 28 29 29 29 28 27 27 26 26 25 24 23 23 22 21 21
36 36 37 36 36 36 35 34 33 33 32 32 32 32 31 31 31 31 30 30 30 30 29 30 30 30 30 30 30 31 30 30 30 30 30 30 30 30 30 29 28 28 27 26 25 25 24 23 23
35 36 36 36 36 35 35 34 33 33 32 32 32 32 31 31 31 31 31 31 31 31 30 30 31 31 31 31 31 32 32 32 32 32 31 32 32 32 31 31 30 29 28 28 27 27 26 26 25
34 35 35 35 36 35 34 34 33 33 32 32 32 32 32 32 32 32 32 32 32 32 32 31 32 32 33 33 33 33 33 33 34 34 34 33 33 33 33 32 31 31 30 30 29 28 28 27 27
32 33 34 34 34 34 33 33 32 32 32 32 32 31 31 32 32 32 32 32 33 33 33 33 34 34 34 35 35 35 34 34 34 34 35 35 34 34 34 34 33 33 32 32 31 31 30 29 28
30 31 33 33 33 33 32 32 31 31 31 31 31 31 32 32 32 32 33 33 33 33 34 34 35 35 35 35 35 36 36 35 35 35 35 36 36 36 36 35 35 34 33 33 32 32 32 31 30
28 29 30 31 32 32 32 31 31 30 30 30 31 31 31 31 31 31 32 32 33 33 34 34 34 34 34 34 34 35 36 36 36 37 37 37 38 38 38 38 37 37 36 35 34 34 33 33 33
26 28 28 29 30 30 31 31 30 30 30 30 30 30 30 30 30 30 31 31 31 32 32 33 33 33 34 34 35 35 37 38 38 37 37 38 38 39 39 39 39 39 38 37 37 36 36 35 35
24 26 27 28 28 28 29 29 29 29 29 29 29 29 28 29 29 29 29 30 30 31 32 32 32 33 34 34 35 36 37 38 39 39 38 38 39 40 41 41 41 41 40 40 39 38 38 37 37
23 24 25 26 26 26 27 26 27 27 28 28 28 28 28 28 28 29 29 29 29 30 31 32 32 33 34 35 36 37 38 38 40 40 40 40 40 40 41 42 42 42 42 42 41 40 40 40 41
22 21 22 23 23 24 24 23 25 25 26 27 27 27 28 28 29 29 29 29 29 30 30 31 32 34 35 36 37 38 38 39 40 40 41 41 41 41 42 43 43 44 44 44 44 43 42 42 42
18 19 20 20 21 22 22 22 23 24 25 25 26 26 27 28 28 28 28 29 29 30 31 31 32 33 34 36 36 37 38 39 39 40 41 41 42 43 43 44 45 45 46 47 47 46 45 44 43
16 17 18 19 20 21 22 22 23 24 24 25 25 25 25 26 27 28 28 29 29 30 31 31 32 32 33 34 35 37 38 39 40 41 42 43 43 44 45 45 46 47 48 48 48 48 48 47 47
15 16 17 19 20 21 22 22 23 24 24 24 25 25 25 26 26 26 28 28 29 30 31 32 32 32 33 33 35 36 38 39 40 40 41 43 44 45 45 46 47 47 48 49 50 50 49 49 48
14 15 16 17 19 20 21 22 22 23 23 23 24 25 25 25 25 26 28 29 29 30 31 32 32 32 33 33 34 35 36 38 40 40 41 42 43 44 45 46 47 47 47 48 49 50 49 49 48
13 14 15 16 18 19 20 21 22 22 23 23 24 24 25 25 26 27 28 28 29 30 31 31 32 33 34 33 33 34 35 37 38 40 41 42 42 43 43 44 45 46 46 47 48 49 50 50 49
12 13 14 15 16 18 20 21 21 22 23 24 24 25 25 26 26 27 28 28 29 29 30 31 32 33 33 34 34 35 35 36 37 38 39 41 42 42 43 43 44 45 45 45 46 47 48 49 49
11 12 13 14 15 17 18 20 21 21 22 23 24 25 26 27 27 27 27 28 29 29 30 30 31 32 33 33 34 34 35 35 35 36 38 39 39 40 40 41 42 43 44 44 45 46 47 47 48
11 12 13 14 15 16 16 18 19 20 21 23 24 25 26 27 28 28 28 28 29 29 29 30 30 31 32 33 34 34 34 34 35 36 36 37 37 39 40 40 40 41 41 42 44 45 46 47 48
10 12 13 14 15 15 16 17 19 20 20 21 23 24 25 26 27 27 28 28 29 29 29 29 30 31 32 32 33 34 34 34 34 35 35 36 36 37 39 40 40 40 40 41 43 44 45 47 49
10 11 13 14 15 16 16 17 18 18 19 19 20 22 23 25 26 27 28 29 29 30 30 30 31 31 31 32 32 33 34 34 34 34 34 35 35 37 38 39 40 40 41 41 42 43 44 45 47
11 12 12 13 15 16 16 16 17 17 18 19 20 21 22 23 25 26 27 28 29 30 31 31 31 31 31 31 31 31 31 32 32 33 33 34 35 36 37 38 39 41 41 42 42 43 44 45 45
11 12 13 14 15 16 16 15 16 17 18 19 20 22 23 24 24 24 25 26 27 28 29 29 29 29 30 30 30 30 30 30 30 31 32 33 33 34 35 35 36 38 39 41 41 42 43 44 46
12 13 14 16 16 17 17 15 17 18 19 20 21 22 22 23 24 25 26 27 27 28 28 28 28 28 29 29 29 30 30 29 30 30 31 31 32 32 32 33 34 35 36 38 40 40 42 43 44

GEFSSGP_500_meanwind_168.txt.gz
Wind_Speed
35 36 36 36 37 37 36 33 31 30 29 29 28 27 26 25 25 24 21 21 21 20 20 20 20 20 20 19 19 19 18 17 17 16 15 15 15 15 15 15 14 14 13 13 12 11 11 11 11
35 36 37 38 38 38 36 34 33 31 31 31 29 28 28 27 26 25 23 22 22 22 22 21 21 21 21 21 21 20 20 19 19 18 18 18 17 17 17 17 17 16 16 15 14 14 13 13 13
35 36 37 38 38 37 35 34 34 33 33 32 31 30 29 28 27 26 24 23 23 23 23 23 23 23 23 23 23 22 22 21 21 21 20 20 20 19 19 19 19 18 18 17 17 16 16 15 14
35 36 37 38 37 37 36 35 34 35 34 33 33 32 30 29 28 27 26 25 24 23 23 24 24 24 24 24 24 24 24 24 23 23 23 22 21 21 21 21 21 21 20 20 19 18 18 18 17
35 36 37 37 36 36 36 37 36 35 35 35 34 32 30 29 28 28 28 27 25 25 24 24 25 25 25 25 25 26 25 25 25 24 25 24 24 24 23 22 22 22 22 21 21 21 20 20 19
34 36 37 36 37 36 36 36 36 36 36 36 35 33 32 30 30 29 29 28 27 26 25 26 26 26 26 26 26 26 26 26 26 26 26 26 26 26 25 24 24 24 24 24 23 23 22 22 21
33 34 35 35 35 36 36 35 35 36 37 36 35 34 32 31 31 31 30 29 28 27 27 27 27 27 27 27 27 27 27 27 27 27 26 27 27 27 26 26 26 25 25 25 25 25 25 24 23
32 33 33 34 34 35 34 35 36 36 37 36 35 34 33 32 31 31 30 30 29 29 28 28 28 27 28 28 29 29 28 28 28 29 28 28 28 28 28 27 27 27 27 27 27 26 26 26 25
31 32 33 33 33 32 33 34 35 35 35 36 34 33 32 32 32 32 31 31 30 30 29 29 29 28 29 29 29 29 29 29 29 30 30 29 29 29 29 29 28 28 28 28 29 28 27 27 27
30 31 32 32 32 32 33 34 34 34 35 35 34 33 32 32 33 33 32 32 32 31 30 30 30 29 29 29 30 30 30 30 30 30 31 31 30 30 30 30 30 30 30 30 30 30 30 29 29
29 31 31 32 32 32 34 34 33 34 35 34 33 33 32 32 33 33 33 32 32 32 31 30 30 30 30 30 30 31 32 32 31 32 32 32 33 32 32 32 32 32 32 31 31 32 32 32 31
27 29 30 31 32 33 33 33 32 33 33 32 32 31 31 31 32 33 32 32 32 32 31 31 31 31 32 32 32 32 32 33 33 33 33 33 33 33 33 33 33 33 33 33 33 33 33 33 33
24 27 28 30 30 31 31 31 31 31 31 30 30 29 29 30 30 31 32 32 32 32 32 32 32 32 32 32 32 32 32 33 33 34 35 35 35 34 34 34 34 34 35 35 34 34 34 34 34
22 24 26 27 28 28 28 28 29 29 29 29 29 28 28 29 29 30 31 30 31 31 31 31 31 32 32 32 32 33 33 33 34 34 35 35 35 35 35 36 36 35 36 37 37 36 36 36 36
21 23 24 25 25 25 26 27 27 28 28 28 27 27 28 28 29 29 30 30 30 30 30 31 31 31 32 32 33 33 33 33 33 34 35 35 35 35 36 37 37 37 37 37 38 38 39 39 39
20 22 23 24 24 24 24 24 25 26 27 27 27 26 26 28 29 29 29 29 29 30 30 31 31 32 32 33 34 34 34 33 34 35 35 35 35 35 36 36 36 38 38 39 39 40 41 41 40
19 21 22 22 22 22 22 23 24 24 26 27 26 26 26 28 28 28 28 29 29 30 30 31 31 32 32 33 34 34 35 34 34 34 35 36 37 37 37 37 38 38 39 41 41 41 42 42 42
16 19 20 20 21 21 22 22 23 23 24 25 26 26 26 27 28 28 28 29 29 30 30 31 31 31 32 32 33 34 34 34 35 35 36 37 38 38 39 39 39 39 40 41 42 43 42 43 44
14 16 18 19 20 20 21 21 22 23 24 24 25 25 26 26 27 27 27 28 29 29 30 30 31 32 32 33 33 34 34 35 36 37 37 37 38 39 40 40 40 40 40 41 42 43 44 44 45
12 14 16 18 19 19 20 21 21 21 22 24 24 25 25 25 25 26 26 28 28 29 30 30 31 32 33 34 34 34 35 36 37 38 38 39 39 40 40 41 41 42 41 42 42 43 44 45 46
11 13 15 16 18 20 20 20 21 21 21 22 24 24 25 25 25 25 26 27 28 29 30 31 32 33 34 35 36 36 36 36 37 38 38 38 39 39 41 42 42 43 43 43 43 43 44 46 46
11 13 14 15 17 19 20 21 21 22 22 23 24 24 25 26 26 27 27 28 28 29 30 32 33 34 35 36 36 36 36 37 37 37 37 38 39 39 40 41 42 42 43 43 43 44 44 45 46
10 12 14 16 17 18 19 21 21 22 23 23 24 25 25 26 27 27 28 29 30 31 32 33 34 35 36 37 37 38 38 38 38 38 38 38 39 39 39 40 40 40 41 42 42 43 45 45 45
11 12 14 16 17 18 19 21 21 22 23 24 25 25 26 27 27 28 29 30 31 32 33 34 35 36 37 37 38 38 39 39 39 39 39 39 39 40 40 40 40 41 41 41 42 43 44 45 45
12 13 14 15 16 17 18 21 22 23 24 25 26 27 27 28 28 28 30 31 32 32 34 35 36 36 37 38 38 38 39 39 39 39 39 39 39 39 39 40 40 40 41 41 42 42 42 43 45
13 14 15 17 17 17 18 20 20 22 24 26 27 28 29 29 29 30 31 32 33 34 35 35 36 36 37 38 39 39 39 39 39 39 39 39 39 39 39 39 40 41 41 42 42 42 42 42 44
15 15 16 18 19 19 19 19 19 21 23 25 27 28 30 31 31 32 33 33 34 34 35 35 36 36 37 38 38 39 39 39 39 39 39 38 38 39 39 40 41 41 41 42 43 42 43 44 45
16 16 17 19 20 21 21 20 20 20 22 24 26 27 29 30 31 32 33 34 34 34 35 35 36 36 37 37 37 38 38 38 37 38 38 38 38 38 39 40 40 41 41 42 42 43 43 44 46
17 17 18 20 21 22 22 21 21 22 22 23 25 26 28 29 30 31 32 33 34 35 35 36 36 36 37 37 37 37 37 38 38 38 37 37 37 38 38 39 40 40 40 40 41 42 44 43 44
17 18 19 20 22 23 24 22 22 23 24 25 26 26 27 29 30 31 31 32 33 34 35 36 37 37 37 37 37 36 37 37 37 37 37 37 37 37 37 38 39 39 39 39 40 41 41 41 42

GEFSSGP_500_meanwind_174.txt.gz
Wind_Speed
33 34 35 36 37 37 37 35 32 31 30 29 28 27 25 24 23 21 19 18 17 17 17 16 16 16 16 16 15 15 15 15 15 15 15 15 15 15 14 14 14 14 14 14 14 14 13 13 13
33 33 35 36 37 37 35 34 33 32 31 30 30 29 27 26 25 23 21 19 19 19 19 18 18 18 18 18 17 17 17 17 17 17 17 17 17 16 16 15 15 15 15 16 16 16 15 15 14
32 33 34 35 36 35 34 34 34 32 32 32 31 30 29 28 26 24 22 21 20 20 20 20 19 19 19 19 19 19 19 19 19 19 18 18 18 18 17 17 17 16 16 16 17 17 17 17 16
31 31 34 35 34 33 33 33 34 33 33 33 32 31 30 29 28 26 24 23 22 22 21 21 21 20 20 20 21 21 21 20 20 20 19 19 19 20 20 20 19 19 18 18 18 18 19 18 18
30 31 32 33 33 32 33 34 33 33 33 32 32 32 31 30 29 27 26 25 24 24 23 23 23 22 22 22 22 22 22 22 22 22 22 21 21 22 22 22 22 21 21 20 21 21 21 21 20
29 30 31 32 32 32 32 33 33 33 33 32 31 32 31 31 30 29 27 26 25 25 24 24 23 23 23 23 24 23 23 23 23 23 23 23 23 23 23 23 24 23 23 23 23 23 22 22 22
27 29 30 31 31 31 32 32 32 32 33 32 31 31 31 31 31 30 28 27 26 26 25 24 24 24 24 24 24 23 23 24 24 25 25 24 25 25 25 25 25 25 25 25 25 25 24 24 24
25 27 28 29 30 30 31 32 31 31 32 33 32 32 31 31 31 30 29 28 27 26 25 25 24 24 24 24 24 24 24 24 25 26 26 26 26 26 26 26 26 26 26 26 26 27 26 26 26
24 26 27 28 29 29 30 30 31 31 32 32 32 31 31 31 31 30 29 28 28 27 26 25 25 25 24 25 25 25 25 25 26 26 26 27 27 27 27 27 27 27 28 28 28 29 29 28 28
23 25 25 28 28 28 29 30 30 31 31 32 32 31 31 30 30 31 30 29 28 28 27 26 26 25 25 25 26 26 26 26 27 27 27 27 27 28 28 28 29 28 29 29 30 30 31 30 30
21 23 24 26 27 27 29 30 31 31 31 32 32 31 31 31 30 29 29 29 29 28 28 27 26 27 27 27 27 27 27 28 28 28 29 29 29 29 29 30 30 30 31 31 31 32 32 32 31
20 21 23 25 26 26 27 29 31 31 31 31 32 32 31 31 30 29 29 29 29 29 28 28 28 28 28 28 28 28 28 28 28 29 29 30 30 30 31 31 31 31 32 33 33 33 33 33 32
18 19 21 23 25 26 26 27 29 30 30 30 30 30 28 29 29 29 29 29 29 29 28 28 28 29 29 29 29 29 29 29 29 29 30 30 31 31 31 32 32 32 33 33 33 33 34 34 34
16 18 19 21 22 24 25 26 27 28 30 29 28 28 27 27 28 28 28 28 28 29 28 28 29 29 29 29 30 30 30 30 30 30 31 31 32 33 32 32 33 33 34 33 33 34 34 35 35
15 17 18 20 21 22 24 25 26 27 28 29 28 27 26 26 27 28 28 28 28 28 29 29 29 29 29 30 30 30 30 31 31 32 33 33 34 34 33 33 33 34 35 35 35 35 35 36 37
15 16 17 19 21 21 23 24 25 26 26 26 26 26 25 25 26 27 28 27 28 28 28 29 29 29 29 30 30 30 31 32 32 33 33 34 34 34 34 34 34 34 35 35 36 36 37 37 38
14 15 17 18 20 21 22 23 24 25 25 25 26 26 25 24 25 26 27 27 28 28 28 29 29 29 30 30 30 30 30 32 33 33 33 33 34 34 34 35 35 36 36 36 37 38 38 38 38
12 14 15 17 18 20 21 22 24 24 24 24 25 26 25 25 25 26 26 26 27 28 27 28 28 28 29 29 30 31 31 32 32 32 34 34 35 36 36 36 36 36 37 37 38 38 39 39 40
11 12 13 15 16 18 20 21 23 23 22 23 24 25 25 25 26 26 26 26 26 27 28 27 28 29 29 30 30 32 33 33 34 34 35 36 36 36 37 37 37 37 38 38 39 40 40 41 41
9 10 12 13 15 17 18 20 21 22 23 23 24 25 25 25 25 26 26 26 26 27 27 28 29 29 30 31 33 33 34 34 36 36 37 37 37 37 37 37 38 39 39 40 40 41 41 41 42
8 9 11 13 15 17 18 18 21 21 21 23 23 24 25 25 25 25 26 26 27 28 29 29 29 30 31 33 34 35 35 36 36 37 37 37 38 39 39 39 39 40 40 41 41 42 42 42 42
7 8 10 11 13 15 17 18 19 20 21 22 23 24 25 25 26 26 26 27 28 29 29 30 30 31 32 33 34 35 35 36 37 38 38 38 39 40 41 41 41 42 42 42 42 42 43 43 43
8 9 10 11 13 14 16 18 18 20 20 21 22 23 25 26 27 27 27 27 28 28 29 30 31 32 32 33 34 35 36 36 37 38 39 40 40 41 41 42 42 43 43 43 43 43 43 43 42
10 10 11 12 13 15 16 18 18 20 20 21 22 23 24 25 26 27 27 27 27 28 29 30 31 33 33 34 35 36 36 37 38 39 40 40 41 41 42 42 42 43 43 43 42 43 44 44 43
12 12 13 14 15 15 16 18 18 20 21 22 23 24 25 26 27 27 27 27 28 29 30 31 32 33 34 35 36 37 37 38 38 39 40 40 41 42 42 42 42 42 42 42 42 42 43 43 44
13 14 15 16 16 16 17 19 19 20 21 22 23 24 25 26 27 27 28 29 30 31 32 33 33 34 35 36 36 37 38 38 39 40 40 40 41 42 42 42 43 43 42 42 42 42 43 43 44
15 15 17 18 18 18 18 18 19 20 22 23 24 24 25 26 27 29 30 31 31 32 33 34 35 35 36 37 37 38 39 40 40 40 41 41 41 42 42 42 42 41 41 41 42 42 43 43 43
17 17 18 19 20 20 19 19 19 20 21 22 23 25 26 27 28 29 31 32 33 34 35 35 36 37 37 37 38 39 39 40 40 41 41 41 41 42 42 41 41 41 41 41 41 42 43 43 43
19 19 19 20 21 22 22 20 19 21 21 23 24 25 26 28 29 30 31 32 33 34 35 36 37 38 38 39 39 40 41 41 41 42 42 42 42 41 40 40 40 40 41 42 42 42 42 43 43
20 19 20 21 22 23 23 21 21 22 23 24 24 25 26 28 29 30 32 33 35 36 37 38 39 39 40 40 40 41 41 41 42 42 42 42 42 41 40 40 40 40 41 42 42 42 42 43 43

GEFSSGP_500_meanwind_180.txt.gz
Wind_Speed
32 32 32 32 34 35 35 34 32 30 29 28 28 28 27 25 24 23 21 20 19 18 17 17 16 15 14 14 14 14 14 13 13 12 12 12 11 11 11 11 10 10 10 10 10 11 11 11 11
32 33 33 33 35 35 33 33 33 31 30 29 29 30 29 27 25 23 22 20 20 19 18 18 17 16 15 15 15 15 14 15 15 14 14 14 13 12 12 12 12 12 12 12 12 12 12 12 12
31 32 33 34 34 34 32 32 32 31 31 30 30 30 30 28 26 24 22 21 20 20 19 19 19 17 16 16 16 16 15 15 15 15 15 15 14 14 14 14 14 14 14 13 13 13 13 13 13
30 31 33 33 33 32 32 32 32 31 31 30 30 31 31 29 27 25 24 23 21 21 21 21 20 19 18 17 17 17 17 16 16 16 15 15 15 15 15 16 16 16 16 16 15 15 15 15 15
30 30 31 31 31 30 30 31 32 31 30 31 31 30 30 29 28 27 25 24 23 22 22 22 22 20 19 19 19 18 18 17 16 16 16 16 16 16 16 16 16 17 17 17 18 17 17 17 17
30 29 29 29 29 29 30 31 32 32 31 30 30 30 30 29 28 27 27 26 24 23 22 22 22 22 21 20 20 19 19 18 18 17 17 18 18 18 18 18 18 18 19 19 19 19 19 19 20
27 28 28 28 28 28 30 31 32 32 32 31 30 30 29 29 29 28 27 26 25 24 23 23 23 22 22 22 21 21 20 19 19 19 19 19 19 19 20 20 20 20 20 21 21 21 21 21 21
24 26 27 26 26 27 29 30 31 31 31 31 31 30 29 29 29 29 28 27 26 25 24 24 23 23 23 23 22 22 21 21 21 21 20 20 21 22 22 22 22 22 22 23 23 23 23 23 23
21 23 23 24 25 26 28 29 30 31 30 30 30 30 30 29 29 29 29 28 27 26 25 25 24 24 23 23 23 23 23 23 23 22 22 22 22 23 23 23 24 24 24 24 25 25 25 25 25
19 21 21 22 23 24 26 27 28 29 30 30 30 30 30 30 30 30 30 29 28 27 26 25 25 26 25 24 24 24 24 24 24 23 23 23 23 23 24 25 25 25 25 25 26 27 27 27 26
19 19 19 21 22 23 24 25 27 28 29 29 29 29 30 30 30 31 30 30 29 28 27 26 26 26 26 25 24 25 25 25 25 24 24 24 24 24 25 26 26 26 26 26 26 28 28 28 28
18 17 18 19 21 22 24 24 26 27 28 29 29 29 28 30 30 31 30 29 29 28 27 28 27 26 26 26 25 25 25 26 25 25 25 25 25 25 25 26 27 27 27 27 27 28 29 29 30
17 16 17 18 19 21 22 23 25 26 27 28 29 29 29 29 30 30 30 30 29 28 28 28 28 27 26 27 27 27 26 27 26 26 26 26 26 26 26 26 27 28 28 28 28 29 30 30 31
16 17 17 17 18 19 21 22 23 25 26 27 27 28 29 29 29 30 30 30 30 29 29 29 29 29 28 27 28 28 28 28 28 28 28 27 27 28 28 28 28 29 30 30 30 30 30 31 32
16 16 16 16 18 18 19 20 21 23 24 26 26 27 27 28 29 30 30 29 29 30 31 31 31 30 29 29 28 28 28 29 29 29 29 29 29 29 30 30 30 30 31 31 31 31 31 32 33
14 14 14 14 16 17 18 18 20 21 22 24 24 25 26 26 28 29 29 28 29 30 30 31 31 30 30 29 29 28 29 29 29 30 30 30 30 30 31 31 30 31 31 32 32 32 32 32 33
13 13 14 14 16 16 17 17 18 19 21 22 24 24 25 26 26 27 28 28 28 28 29 30 30 30 30 30 29 29 30 30 30 30 30 30 31 32 32 32 32 32 33 33 34 34 35 34 34
12 13 13 13 15 15 15 16 18 19 20 22 23 24 25 26 26 26 27 28 28 28 29 29 29 29 30 30 30 30 30 31 31 31 31 32 32 33 34 34 34 34 34 35 36 36 37 36 37
13 13 12 12 14 14 14 15 17 18 20 21 23 24 25 25 25 25 25 26 27 28 28 28 29 29 29 30 30 31 32 32 33 33 32 33 33 34 35 36 36 36 36 37 38 39 39 39 39
13 13 12 12 13 14 14 14 16 18 19 20 21 22 23 24 24 24 25 25 25 27 27 27 28 29 29 30 30 31 32 33 34 35 35 35 35 35 36 37 37 38 38 38 39 39 40 41 41
14 13 13 12 13 13 14 14 16 18 19 20 21 22 23 24 25 25 25 26 26 27 28 28 29 29 30 30 31 32 33 34 35 35 36 37 38 38 39 39 39 39 40 40 40 40 41 41 43
13 13 12 12 12 12 13 14 15 18 20 20 21 23 24 25 26 26 27 27 28 28 28 29 29 30 31 32 32 33 33 34 36 36 37 38 39 40 40 41 41 41 41 41 41 42 43 43 44
13 12 13 13 13 13 15 16 15 18 19 20 21 23 24 26 27 27 28 28 28 28 29 30 31 31 32 32 33 34 35 35 36 37 38 39 39 40 41 42 42 42 43 43 43 44 44 44 45
13 13 14 14 14 14 15 17 17 19 19 20 21 23 24 26 27 28 29 29 29 29 30 30 31 32 32 33 34 34 35 35 36 37 38 39 40 41 42 43 43 43 44 44 44 44 45 45 45
15 15 15 15 15 15 16 17 18 19 20 21 21 23 24 26 27 28 29 30 31 31 31 32 33 33 33 34 34 35 36 36 36 38 39 40 41 42 43 44 44 44 44 45 45 45 46 46 46
16 16 16 18 18 17 17 17 18 19 20 21 22 23 24 26 27 28 29 31 32 33 33 33 34 34 34 35 35 36 37 38 39 40 41 42 43 44 44 44 44 44 44 44 45 45 45 45 45
17 17 17 19 19 19 19 19 19 20 21 22 23 24 25 26 27 29 30 32 33 34 35 35 35 35 36 36 37 38 39 39 41 42 43 43 44 45 45 45 45 44 44 44 44 45 45 45 45
18 18 19 20 21 21 20 19 20 20 21 23 25 26 26 27 27 29 31 33 34 35 35 36 36 36 37 38 39 40 41 42 42 43 44 44 44 44 44 44 44 45 45 45 45 45 46 46 45
21 21 22 22 23 23 23 21 20 21 22 24 25 26 27 28 28 29 31 32 34 35 36 37 37 38 39 40 41 41 42 43 43 43 44 44 44 44 45 45 45 45 45 45 45 44 45 45 45
24 24 24 24 25 26 26 24 22 23 25 26 27 28 29 29 29 31 32 33 34 35 36 38 39 39 40 41 42 43 43 44 45 45 45 45 45 45 45 45 45 45 45 45 45 45 44 44 45

GEFSSGP_500_meanwind_186.txt.gz
Wind_Speed
27 28 28 29 31 31 31 30 29 28 28 28 27 27 26 25 24 24 23 22 22 21 20 19 18 17 16 15 15 14 14 13 13 13 13 13 13 12 12 12 11 11 11 10 9 9 8 8 8
27 28 29 30 31 31 30 30 30 30 30 29 28 28 27 27 26 25 24 23 23 22 21 20 19 18 17 16 16 15 15 15 14 14 14 13 13 13 13 13 13 12 12 12 11 10 10 10 10
27 28 29 30 31 30 30 29 31 31 31 30 29 28 28 27 27 26 25 24 23 23 22 21 20 19 18 17 17 17 16 16 15 15 15 14 14 14 14 13 13 13 13 13 13 12 12 12 12
27 28 29 30 29 29 29 29 30 30 31 30 30 29 28 27 27 26 26 26 24 23 23 22 21 20 19 18 17 17 17 16 16 15 15 15 15 15 15 14 14 14 14 14 14 13 13 13 13
25 26 28 29 28 28 28 29 29 30 30 30 30 29 28 27 27 25 25 26 25 24 23 23 22 21 19 19 19 18 17 17 17 17 16 16 16 16 16 15 15 15 15 15 15 15 15 15 15
24 25 26 27 27 27 27 28 28 28 28 29 30 29 28 27 27 26 25 26 25 25 23 22 23 22 21 21 20 20 19 19 19 18 18 17 17 17 16 16 16 16 16 16 17 17 17 17 17
23 23 24 25 25 25 25 26 27 27 27 27 29 30 28 28 28 27 27 27 26 25 25 24 23 22 22 22 22 21 21 21 21 20 20 19 18 18 17 18 18 18 18 18 18 18 19 19 19
22 23 23 24 24 24 24 24 25 26 26 26 28 30 29 28 28 29 28 28 27 26 25 25 24 23 23 23 23 22 22 22 22 21 21 21 20 19 19 19 19 19 19 20 19 19 20 21 21
21 22 21 21 22 22 23 23 23 24 26 26 27 28 28 28 29 29 29 28 28 27 26 26 25 25 25 24 24 24 23 23 23 23 23 23 22 21 21 21 21 21 21 21 21 21 21 21 22
21 20 19 19 20 21 21 22 22 22 24 24 25 26 27 29 29 30 29 29 29 28 27 27 26 25 25 25 25 24 24 24 23 23 23 23 23 22 22 21 22 22 22 22 22 22 22 22 22
19 18 18 18 19 20 20 20 21 21 22 23 24 24 26 29 29 29 30 29 29 28 27 28 27 26 26 26 25 24 24 25 24 24 24 24 23 23 22 22 22 22 22 23 23 22 23 23 23
17 16 17 16 17 19 20 20 20 21 21 23 23 24 26 28 29 29 29 29 29 29 28 29 28 27 27 27 26 26 26 26 25 25 25 25 25 24 24 23 22 22 23 23 24 24 24 24 25
16 16 16 15 16 17 18 19 20 20 21 22 24 25 26 27 29 29 28 29 29 30 30 29 29 28 27 27 27 27 28 27 27 27 27 26 26 26 26 25 25 24 24 24 25 25 25 26 26
15 15 16 16 16 16 16 18 19 20 21 22 24 25 26 27 28 28 28 28 29 30 30 30 30 30 30 27 27 28 28 28 28 28 28 28 28 28 28 27 27 26 26 26 26 27 27 27 27
14 15 15 15 15 15 15 16 17 19 20 21 24 25 26 28 28 29 29 29 28 29 30 31 31 31 31 30 29 28 29 29 30 29 29 28 29 29 30 29 28 28 28 28 28 28 29 29 29
12 13 13 13 13 14 14 14 16 18 19 20 22 24 26 28 29 29 29 30 30 29 30 31 31 32 32 31 30 30 29 29 29 30 30 29 29 30 30 31 30 30 30 30 30 30 30 31 31
11 11 11 11 11 12 13 14 15 16 18 19 21 23 25 27 28 28 29 29 30 30 30 31 31 31 31 31 29 30 30 31 30 31 31 31 31 31 32 32 32 32 32 33 33 33 32 32 32
10 11 12 12 11 11 12 13 14 16 17 18 20 23 24 25 27 28 29 29 29 29 29 29 30 30 30 30 30 29 30 31 30 31 32 31 31 32 33 34 34 34 34 34 34 34 34 34 34
9 10 11 11 12 11 11 12 13 15 16 18 20 22 23 24 26 27 27 28 28 28 29 29 28 29 30 30 30 30 30 30 30 31 32 32 32 32 33 33 34 35 35 35 35 35 36 36 37
10 10 11 11 12 12 11 11 12 15 16 17 19 20 21 23 24 26 27 28 28 29 29 28 29 29 29 30 30 30 30 30 31 32 34 34 34 34 34 34 34 35 36 36 37 37 38 38 39
12 12 12 12 12 12 12 11 11 13 15 16 18 20 21 22 24 25 25 27 28 28 29 28 28 28 29 30 30 30 31 31 32 33 34 36 36 35 36 36 36 36 36 36 37 38 38 39 40
13 13 13 13 13 13 13 12 12 14 15 16 18 20 21 23 24 26 26 26 27 28 29 29 29 29 30 31 31 31 32 33 33 33 34 35 36 37 37 37 38 38 39 39 39 39 39 40 41
14 14 14 13 13 13 13 14 14 15 15 16 18 19 21 23 25 26 27 27 28 29 29 30 31 31 31 32 32 32 32 33 34 34 35 35 36 37 37 38 39 39 39 41 41 42 42 42 42
14 14 14 14 14 15 14 16 16 17 16 17 18 20 21 23 24 26 27 28 29 30 31 31 31 32 32 32 33 34 34 34 35 35 36 36 37 38 39 39 40 40 41 42 43 44 44 43 43
15 15 15 15 16 16 15 16 17 17 17 19 20 21 22 24 25 27 27 28 29 31 32 32 32 33 33 34 34 34 34 35 36 36 37 37 38 39 40 40 41 42 43 43 44 45 45 45 45
16 16 17 18 18 18 17 17 17 17 18 19 21 22 24 25 26 27 28 28 30 31 33 34 34 33 34 35 35 35 35 36 37 37 38 39 40 40 41 42 43 43 43 44 45 46 46 46 46
18 18 18 19 20 20 20 19 18 18 19 20 21 22 24 25 26 27 28 29 30 31 32 34 34 34 35 36 37 38 37 38 38 39 40 40 41 42 42 43 44 45 45 46 47 47 47 47 47
20 20 20 21 22 22 21 21 20 20 21 21 22 23 24 26 27 28 29 29 30 31 32 33 34 35 36 36 37 38 39 40 40 42 42 42 43 44 45 45 46 46 47 47 47 47 48 49 49
22 22 22 23 24 24 24 23 22 22 23 24 24 25 26 27 28 29 30 31 32 32 33 35 36 36 37 38 39 39 40 41 43 43 43 44 45 46 47 47 48 48 48 48 49 49 49 50 50
25 25 25 25 26 26 26 25 24 24 25 26 27 28 29 29 29 30 31 33 34 34 35 36 37 38 38 39 40 41 42 42 43 44 45 46 47 47 48 48 48 48 49 49 50 51 51 51 51

GEFSSGP_500_meanwind_192.txt.gz
Wind_Speed
23 24 25 26 27 28 28 28 28 28 28 27 26 26 25 25 24 25 24 22 22 22 21 21 20 19 18 17 17 17 16 16 16 16 15 15 14 14 14 13 13 13 12 12 12 11 11 10 10
23 24 25 26 28 28 28 28 29 30 29 28 28 27 26 26 26 25 25 24 23 23 22 21 20 20 19 18 18 18 18 17 17 17 16 15 15 15 14 14 14 13 13 13 13 12 12 12 12
24 24 25 27 28 28 29 29 30 31 31 28 28 28 27 28 27 25 25 26 25 24 23 23 20 20 20 19 18 18 18 18 18 17 17 16 16 15 15 15 14 14 14 14 14 13 13 13 13
24 25 26 26 27 27 28 29 29 30 29 29 29 29 29 28 28 26 25 26 26 25 24 24 22 21 21 20 19 19 19 18 18 17 17 17 17 16 16 16 16 15 15 15 14 14 14 14 14
24 25 26 26 25 25 27 27 28 29 29 28 29 30 29 28 28 26 26 26 27 26 25 25 24 23 23 22 21 20 20 19 19 19 19 19 18 18 17 17 17 16 16 16 15 15 15 15 15
25 25 26 25 25 25 25 25 25 27 29 28 29 30 29 27 27 26 25 27 27 28 27 26 25 25 24 23 22 22 22 20 20 20 20 19 19 19 18 18 17 17 17 17 16 16 16 16 16
25 26 25 25 25 24 24 25 25 27 27 28 29 29 28 27 28 28 27 28 28 29 29 27 27 27 26 24 24 24 23 21 21 21 21 20 20 20 20 20 19 19 18 19 19 18 18 18 18
25 26 25 24 24 24 23 24 25 26 27 27 29 30 27 27 27 27 27 27 29 29 29 28 28 28 27 26 26 25 24 23 22 22 22 21 21 21 21 21 21 20 20 20 20 20 19 19 19
26 27 25 24 24 23 23 23 25 26 26 28 29 29 28 26 27 28 27 28 28 28 29 28 28 28 27 27 27 27 26 25 24 23 23 23 22 22 22 22 22 22 21 21 21 21 21 21 21
25 25 24 25 24 24 23 24 25 25 26 27 28 28 28 26 26 28 28 28 28 28 28 28 27 27 27 27 28 28 28 27 25 24 23 23 24 23 23 22 23 22 22 22 21 22 22 22 21
24 24 23 23 24 24 23 23 24 24 24 25 26 26 27 27 26 27 29 29 28 29 29 28 29 28 28 28 27 27 27 26 26 25 25 23 23 23 23 23 23 23 23 22 22 22 22 22 22
20 20 20 21 23 23 23 22 22 23 23 24 24 25 27 26 26 27 28 28 28 29 29 28 28 28 29 29 28 27 28 27 27 26 25 25 23 23 23 23 23 24 23 23 23 23 23 24 24
18 18 19 19 21 22 22 23 22 22 21 22 22 23 24 25 25 27 29 29 28 29 29 28 28 28 29 29 29 29 29 28 27 27 26 26 26 26 25 25 24 24 24 24 24 24 24 24 24
17 17 17 18 19 20 21 21 21 20 20 20 21 21 22 24 26 27 29 29 28 29 29 29 27 27 28 29 30 30 30 29 28 28 27 27 28 28 27 27 26 25 25 25 25 25 25 25 25
16 16 17 17 18 19 20 20 20 19 19 19 20 20 21 23 25 27 28 29 29 29 29 29 29 28 26 28 30 30 31 30 29 29 29 28 28 28 28 27 28 27 26 27 27 27 26 27 27
16 16 16 16 17 17 18 18 18 18 19 19 19 20 21 22 24 26 27 28 29 29 29 28 29 28 27 28 30 31 31 30 29 29 29 29 29 30 30 29 29 30 29 29 29 29 28 28 28
16 16 15 15 15 16 16 17 17 18 18 18 19 20 20 22 23 24 26 27 28 29 29 29 29 28 28 28 29 30 31 31 30 29 30 30 30 31 31 31 32 31 31 31 31 31 30 29 30
15 15 15 15 14 14 15 15 16 17 18 19 19 20 20 21 23 23 24 26 27 27 28 29 29 29 28 28 29 29 30 30 30 30 30 31 31 31 32 32 33 33 33 33 32 32 32 32 32
15 15 14 15 14 14 14 14 15 16 17 18 19 20 21 21 22 23 25 25 25 26 27 29 29 29 29 28 29 29 30 31 31 31 32 32 32 33 33 33 33 34 33 33 33 34 34 35 35
15 15 15 15 14 15 15 14 14 15 16 17 18 19 20 21 22 24 25 26 26 26 27 27 29 29 29 29 29 30 31 31 31 32 33 34 34 34 34 35 34 34 33 34 34 35 35 36 37
15 15 15 15 15 15 14 14 14 15 17 17 19 20 21 21 22 24 25 25 26 26 27 28 29 29 29 29 30 31 31 32 32 34 34 34 34 34 34 35 35 35 34 34 35 35 36 36 37
16 15 15 15 16 16 16 17 16 16 17 18 19 20 21 21 22 23 25 26 26 27 27 27 28 30 30 30 31 32 31 32 32 32 33 34 34 34 35 35 35 35 35 35 36 37 37 38 38
16 16 16 17 17 18 17 17 16 17 17 18 20 20 20 21 22 23 25 26 26 27 28 28 29 30 30 30 30 30 31 31 31 31 31 32 33 34 35 36 36 37 37 37 38 38 39 39 39
17 17 17 18 19 19 17 18 17 17 18 19 20 21 21 22 23 24 25 26 26 27 29 29 30 31 31 31 31 31 31 32 32 32 33 33 33 35 36 36 37 39 39 39 39 39 40 40 41
18 17 18 19 20 20 18 19 18 18 19 19 21 22 23 24 24 25 27 27 27 28 29 30 31 32 33 33 33 33 33 34 34 34 35 35 35 36 36 37 38 40 41 41 41 41 42 42 43
19 19 20 20 21 21 20 21 20 19 19 20 21 23 24 26 26 27 28 28 28 29 30 30 31 32 33 34 35 35 35 36 36 36 36 37 37 37 38 38 40 41 42 42 42 43 43 44 44
21 22 22 23 23 24 24 24 23 22 22 22 23 24 25 27 27 28 29 30 31 31 32 32 33 33 34 34 35 36 36 37 37 38 38 38 38 39 39 40 41 42 43 44 44 45 45 45 45
23 23 24 25 25 26 26 25 25 24 24 24 25 26 27 28 29 29 31 32 32 32 33 34 34 35 36 36 36 36 37 38 39 40 40 40 40 41 41 42 43 44 45 46 46 46 46 47 47
25 25 26 27 28 29 29 28 27 26 26 27 27 27 29 30 30 31 32 33 34 35 35 35 36 36 36 37 37 37 38 40 41 42 42 42 43 43 44 44 45 46 47 47 47 47 48 48 48
28 28 28 29 29 30 31 30 29 28 29 29 30 29 30 31 32 33 34 34 35 35 36 36 37 38 38 39 39 40 40 42 43 44 44 45 45 46 46 47 46 47 48 48 49 48 49 49 50

GEFSSGP_500_meanwind_198.txt.gz
Wind_Speed
21 22 22 23 24 25 25 25 25 25 26 26 26 25 25 24 23 23 21 20 19 19 18 18 18 18 18 18 18 17 17 17 16 16 16 16 15 15 15 15 14 14 13 13 13 12 12 12 12
21 22 23 24 25 25 26 25 25 26 27 28 27 26 26 25 25 24 23 22 20 20 20 19 19 19 19 18 19 18 18 18 17 17 17 17 17 17 16 16 16 15 14 14 14 14 13 13 13
22 23 24 25 25 25 26 25 25 26 27 28 28 26 26 25 26 25 24 23 22 21 21 20 20 20 19 19 19 19 19 19 18 18 17 17 17 17 17 17 17 16 16 15 15 15 15 14 14
22 23 24 25 24 25 26 26 26 26 26 27 27 27 27 26 26 25 24 24 23 22 22 22 20 21 21 20 20 20 20 19 19 19 19 18 18 18 18 18 18 18 18 17 16 16 16 16 16
23 24 24 24 24 25 25 26 26 26 26 26 27 26 26 27 26 25 24 24 23 23 24 24 23 22 22 22 21 21 21 20 20 20 20 19 19 18 19 19 19 19 19 18 18 17 17 18 17
23 24 24 23 23 24 24 25 26 25 26 25 26 25 26 27 26 25 25 24 24 23 25 26 25 24 22 22 22 22 22 22 21 21 21 21 20 20 19 20 21 20 20 20 19 19 19 19 18
23 24 23 23 23 23 24 24 24 24 24 24 25 25 25 26 26 25 25 24 24 24 25 26 25 24 23 23 23 23 23 23 23 23 22 22 21 21 21 21 21 21 21 21 21 21 20 20 19
23 23 22 22 23 23 24 23 23 22 23 24 24 24 24 26 25 25 25 24 24 25 24 26 25 25 25 25 25 25 24 24 24 24 23 23 22 22 21 21 21 22 22 22 22 22 22 22 21
22 22 21 21 21 22 23 22 22 22 22 23 24 24 24 25 25 25 25 25 25 26 25 26 26 26 26 25 26 26 25 25 25 25 24 24 24 24 23 22 22 22 22 22 22 22 22 23 23
20 20 19 19 20 21 22 21 21 22 22 22 24 23 25 25 25 26 25 25 25 25 25 25 26 26 27 26 26 27 27 27 27 27 26 26 25 25 24 23 22 22 22 22 22 23 23 23 23
19 19 18 18 19 20 21 21 21 21 22 22 23 23 24 25 26 25 26 25 25 25 25 26 26 26 27 27 27 28 28 29 29 28 28 27 26 25 25 24 23 23 23 23 24 24 23 23 23
19 18 18 18 18 19 19 20 21 19 20 21 22 23 24 25 25 26 26 27 27 27 26 26 26 27 28 27 27 28 29 30 30 29 29 29 29 27 26 25 25 25 25 24 24 24 24 23 23
17 17 17 18 18 19 19 20 20 19 19 20 21 22 24 24 25 25 26 25 27 26 27 27 27 28 28 27 27 28 29 28 29 30 29 29 30 29 28 27 26 25 25 24 24 25 25 24 23
17 17 17 17 18 19 19 20 19 18 19 20 20 22 23 23 24 25 26 26 27 28 28 27 27 28 28 27 26 27 29 28 29 30 30 30 30 29 28 27 27 27 26 26 26 25 25 25 25
18 17 17 16 17 17 18 18 17 18 18 18 20 21 22 22 23 25 25 25 26 28 29 27 27 26 27 27 27 27 26 27 29 31 31 31 31 30 29 28 28 28 28 28 27 27 27 27 26
18 18 17 16 17 17 18 17 16 17 17 18 19 20 22 21 22 24 24 24 25 26 27 27 27 27 27 28 28 27 26 26 27 30 31 31 31 31 30 30 29 29 29 29 29 28 28 28 28
17 18 17 16 15 16 16 16 16 17 17 17 18 20 21 22 22 23 23 23 24 26 26 27 27 27 27 27 28 27 27 27 27 29 30 30 30 30 30 30 30 30 29 30 31 31 30 30 30
17 17 17 16 15 16 16 15 16 18 18 17 18 20 21 21 21 22 23 22 24 26 27 27 28 28 28 27 26 27 27 27 27 28 30 29 30 29 29 30 30 30 30 30 30 30 31 31 31
17 17 16 16 15 15 15 15 15 17 18 18 19 20 20 20 19 20 21 21 23 24 25 26 28 28 28 28 27 26 26 27 27 28 30 30 30 30 29 30 30 30 31 31 31 31 31 31 32
17 17 17 17 16 16 15 15 15 16 17 17 19 20 21 20 20 21 21 22 22 23 24 25 26 27 27 28 28 28 27 27 26 27 29 29 30 31 31 31 31 31 32 32 33 33 33 32 32
17 17 17 17 17 17 17 16 15 16 17 18 18 19 20 20 20 21 22 22 22 23 24 24 25 27 27 28 28 28 30 29 28 28 29 30 31 32 32 32 32 33 33 34 35 35 35 36 36
18 17 18 17 17 17 17 17 15 16 16 17 18 18 19 20 21 21 22 22 23 24 24 24 24 25 27 28 28 29 30 29 28 28 29 30 31 32 33 34 34 34 35 36 36 37 37 38 38
18 18 18 18 18 18 17 18 15 15 16 16 17 18 19 20 21 22 22 22 23 24 25 25 25 25 27 28 29 30 30 30 29 29 30 31 32 33 34 35 35 36 37 37 38 39 39 40 40
18 18 18 18 18 18 17 18 16 16 16 17 18 19 20 21 21 21 22 22 23 24 25 26 27 27 28 28 29 30 30 30 29 30 31 32 33 33 35 37 37 37 39 40 40 41 41 41 42
20 20 20 20 20 19 18 19 17 17 17 18 19 20 21 22 22 23 23 23 23 25 26 27 28 28 29 29 29 30 30 30 31 32 32 33 34 35 36 38 38 39 41 41 42 43 43 43 44
22 21 21 22 22 21 20 20 18 18 18 19 20 21 22 23 23 24 24 25 25 26 27 28 29 30 30 30 30 30 32 32 33 33 34 35 36 37 38 38 39 40 41 42 42 43 43 44 44
23 23 22 23 23 23 23 22 20 20 19 19 20 21 22 23 24 25 26 26 27 27 29 29 30 31 31 31 32 32 33 33 34 35 36 36 37 39 39 40 41 41 42 43 43 44 44 45 45
25 24 23 24 24 24 24 22 21 20 20 20 21 22 23 24 25 26 26 27 28 29 30 31 31 32 32 33 34 34 34 36 36 37 37 39 39 40 41 42 42 43 43 44 44 45 45 46 46
26 26 25 26 26 26 26 24 23 23 23 23 23 24 24 25 26 27 28 29 29 31 32 33 34 35 35 36 36 36 37 38 38 39 40 41 41 42 43 43 44 45 45 46 46 46 46 47 48
28 28 27 28 28 28 28 26 26 25 26 26 26 26 27 28 29 29 30 31 32 32 33 34 36 37 38 39 38 39 40 40 41 42 42 43 44 44 44 45 45 46 47 47 47 46 47 48 49

GEFSSGP_500_meanwind_204.txt.gz
Wind_Speed
23 23 24 25 26 26 24 24 23 24 24 24 25 24 24 24 23 23 22 21 20 20 19 18 18 18 18 18 17 16 15 15 14 13 13 13 12 12 12 12 11 11 10 10 10 10 10 10 10
25 25 26 27 27 26 25 24 24 25 25 25 26 26 26 25 24 24 23 22 21 21 20 19 19 19 19 19 19 18 17 16 15 15 14 14 13 13 13 13 12 12 12 11 11 11 11 11 11
27 27 27 28 28 27 26 25 25 25 26 26 26 26 26 25 25 24 24 23 23 22 22 21 20 20 20 20 20 19 18 17 16 16 16 15 15 15 14 14 13 13 13 13 13 13 12 12 12
27 27 28 28 28 27 26 26 25 25 26 26 25 25 26 25 25 24 24 24 23 23 23 22 21 21 21 20 20 20 19 17 17 17 17 16 16 15 15 15 15 14 14 14 14 14 14 14 13
27 27 27 28 27 26 27 26 26 25 25 25 25 24 24 24 25 24 24 23 23 23 23 23 22 22 23 22 21 21 20 19 18 18 18 18 17 17 16 16 16 16 16 16 16 16 16 15 15
26 26 26 26 25 26 26 25 25 25 24 25 25 24 24 24 24 24 24 24 24 24 24 24 24 23 24 23 22 21 21 20 20 19 19 19 19 18 18 18 17 17 17 17 17 17 17 17 16
25 26 25 25 24 25 26 26 25 24 24 25 25 25 24 24 24 24 24 25 25 25 25 25 25 25 25 24 23 22 21 21 21 20 20 20 20 19 19 19 19 19 18 18 17 17 18 18 18
25 26 26 25 24 25 26 26 25 25 25 25 25 24 24 24 24 24 25 25 26 26 25 24 25 25 26 25 24 23 22 22 21 21 21 21 21 20 20 20 20 20 19 18 18 17 18 18 19
25 25 25 24 24 24 25 25 25 24 24 24 24 24 23 25 25 25 25 26 26 26 25 24 25 25 25 25 24 23 22 22 21 21 21 22 22 22 21 21 21 21 20 19 19 19 19 19 20
24 24 23 23 22 22 23 23 23 23 23 23 23 23 23 24 25 25 25 26 27 27 26 25 25 25 25 25 25 24 23 22 22 22 23 23 23 23 22 23 23 22 22 21 21 21 21 21 20
23 23 22 22 22 21 22 22 22 22 21 21 22 22 22 23 25 25 25 26 26 27 27 25 26 27 27 26 25 25 24 23 22 22 23 23 24 24 24 23 24 23 23 23 22 23 22 22 22
22 22 22 22 22 21 21 21 21 21 20 21 22 22 22 23 24 25 25 26 27 27 27 25 25 26 27 27 27 26 25 24 23 23 24 24 25 25 25 25 25 25 24 24 24 23 23 23 23
20 21 21 21 21 21 20 20 20 19 20 21 21 21 21 23 24 26 26 27 27 27 26 26 25 27 28 28 27 27 25 24 24 25 24 25 25 26 26 26 26 26 25 23 23 24 24 25 25
20 20 20 21 21 21 20 20 20 19 20 21 21 21 21 21 23 24 24 25 26 26 26 27 26 25 25 26 26 27 26 25 25 25 25 25 25 26 27 27 26 26 25 25 24 26 26 26 26
19 20 19 20 21 21 21 20 19 19 20 21 20 21 20 20 20 22 24 24 25 26 26 26 26 26 26 27 28 28 27 26 26 27 27 26 26 26 27 28 27 27 27 27 26 26 27 27 27
19 20 19 19 20 21 22 21 20 20 20 20 20 19 20 20 20 21 23 24 24 25 27 27 25 26 26 27 28 29 27 27 27 28 28 28 28 27 27 28 28 28 28 27 27 26 26 27 28
20 20 20 20 20 21 22 22 22 21 21 20 20 20 20 20 19 20 22 23 23 24 25 26 27 26 26 26 27 27 27 26 27 27 27 27 28 28 28 28 29 29 29 29 28 27 27 28 29
21 21 21 21 21 21 22 22 22 22 21 21 21 21 21 21 20 21 22 23 24 26 26 27 27 27 27 27 27 28 27 27 27 27 27 28 28 28 28 29 30 30 30 31 31 30 29 30 30
21 21 21 22 22 22 22 22 22 22 22 22 21 22 22 22 22 22 23 24 23 25 26 27 27 27 28 26 26 28 28 28 28 29 29 29 30 29 29 29 30 31 31 32 32 32 31 31 31
22 22 22 22 22 22 22 22 22 23 23 23 23 23 23 23 23 23 24 25 25 24 25 26 27 27 28 27 26 27 29 30 30 29 30 31 31 31 30 31 32 33 33 33 34 34 35 35 34
23 23 23 23 23 23 23 22 22 23 23 24 24 24 24 23 24 24 25 25 25 26 26 26 27 28 28 28 28 29 29 29 29 29 31 32 32 32 32 33 34 35 35 35 36 35 35 35 36
24 23 23 23 24 24 24 24 22 22 23 23 24 24 24 24 24 25 25 25 25 26 26 27 27 28 28 28 28 29 28 29 29 29 30 32 33 33 33 34 35 36 36 36 37 37 37 36 37
25 24 24 24 25 24 23 24 22 22 22 22 22 23 24 24 25 25 26 27 26 26 27 27 27 27 28 28 28 29 29 29 30 30 30 31 32 33 34 34 35 36 37 38 39 38 37 37 38
26 26 26 26 26 26 23 24 23 22 22 22 23 23 24 25 25 26 26 26 26 26 26 27 28 28 28 29 29 30 30 30 30 31 31 32 32 33 34 33 34 36 37 38 39 38 38 39 40
27 27 27 28 28 27 25 25 24 22 23 23 23 24 24 24 25 26 26 26 26 26 26 28 28 29 29 30 30 30 31 31 32 32 32 32 32 33 33 34 34 36 37 38 39 40 40 41 42
28 28 28 29 29 28 27 27 25 23 23 24 24 25 25 25 26 26 26 27 26 26 28 28 29 29 30 31 32 32 32 33 33 33 33 33 33 34 34 35 35 35 36 37 39 40 40 42 44
30 30 29 30 30 29 29 27 25 24 24 24 25 25 26 26 27 27 27 28 27 27 28 29 29 30 30 31 32 32 33 33 34 34 34 34 35 35 36 36 37 37 38 39 40 41 42 43 44
31 31 31 31 32 31 30 28 26 25 24 25 26 26 27 28 28 28 29 29 29 29 29 30 30 30 31 31 32 33 34 34 35 36 36 36 36 37 37 37 38 39 40 41 42 43 44 45 46
34 34 33 33 34 33 32 30 28 27 27 27 28 28 28 29 30 30 30 31 31 31 31 31 31 32 33 33 34 34 36 37 37 38 38 38 39 40 39 40 41 42 42 43 44 45 46 47 48
37 36 35 35 35 35 35 33 31 30 30 29 29 29 29 30 31 31 31 32 33 33 33 34 34 34 35 36 37 37 38 39 39 40 41 41 41 42 42 43 44 44 45 46 46 47 48 48 49

GEFSSGP_500_meanwind_210.txt.gz
Wind_Speed
25 25 25 25 26 26 25 23 23 23 23 23 23 23 23 22 22 22 21 21 20 20 19 19 19 18 18 18 18 17 17 16 15 14 13 13 12 11 11 11 11 10 10 9 8 8 8 7 8
26 26 26 27 28 27 26 25 24 24 25 25 25 25 24 24 24 23 23 22 22 22 21 20 20 20 19 19 19 19 18 17 16 15 14 14 13 13 12 11 11 11 11 10 10 9 9 9 8
27 28 28 28 29 28 26 25 25 25 25 26 26 26 25 25 25 25 24 24 23 23 23 22 21 21 20 20 20 20 19 18 17 17 16 16 15 14 13 13 12 12 11 11 11 11 10 10 10
28 29 30 30 30 28 27 26 26 26 25 25 25 25 25 25 25 25 25 24 24 25 24 24 23 22 21 21 21 21 20 19 19 18 18 17 16 15 15 14 14 13 12 12 12 12 12 12 11
29 30 30 31 30 28 27 27 27 27 26 26 25 25 25 25 25 25 25 25 25 26 26 25 24 24 23 22 22 23 23 22 20 20 19 18 17 17 17 16 16 15 14 14 14 13 13 13 13
29 30 30 30 30 28 27 27 27 27 27 26 26 25 25 25 25 25 25 25 25 26 26 26 26 25 24 24 23 24 24 23 22 21 20 19 19 18 18 18 18 17 16 16 15 15 14 14 14
29 29 29 29 29 28 28 28 27 27 27 27 26 26 25 25 25 25 26 26 26 26 27 27 26 26 25 24 24 24 24 24 23 22 20 20 20 19 19 19 18 18 18 17 16 16 16 15 15
29 29 29 28 28 27 27 28 27 27 27 26 26 26 25 25 25 25 26 26 26 27 27 28 27 27 26 25 25 24 24 23 23 22 21 20 19 19 18 18 19 19 19 19 18 18 17 17 16
28 29 29 28 27 27 27 28 28 27 26 26 26 25 25 25 24 25 26 27 27 27 28 28 28 27 27 26 26 26 25 24 23 22 21 20 20 19 19 19 19 20 20 20 19 19 19 19 18
27 28 27 26 26 26 26 28 27 26 26 25 26 25 25 25 24 25 25 26 27 28 29 29 29 28 28 27 28 27 26 25 24 24 23 22 21 20 20 20 20 20 21 21 21 21 21 20 20
25 26 26 26 25 25 25 26 27 26 25 25 25 25 25 24 24 23 25 26 27 27 29 29 29 29 28 28 29 29 27 25 25 24 24 23 22 21 21 21 20 21 21 21 22 22 22 21 21
24 23 24 25 24 24 24 25 26 26 24 24 24 25 24 24 23 23 24 25 26 27 28 28 29 29 29 29 29 30 29 26 24 23 23 24 23 22 22 22 21 21 21 22 22 23 23 23 23
23 22 23 24 24 24 24 24 25 25 24 23 23 23 23 23 23 23 23 23 25 27 27 28 29 29 29 29 28 29 30 28 26 24 23 24 23 23 22 22 22 22 22 22 23 24 24 24 24
23 22 22 23 24 24 24 23 23 24 24 22 22 22 22 23 23 22 22 23 25 26 28 28 27 29 30 30 29 28 29 29 29 27 24 23 23 23 23 23 22 23 23 24 24 25 26 26 26
23 23 22 23 23 24 24 22 22 23 24 23 22 21 21 22 23 22 22 23 24 26 28 30 30 29 30 31 29 28 28 29 29 27 26 24 24 25 24 24 24 24 24 24 25 26 26 27 27
24 24 23 22 23 23 24 22 21 23 23 22 22 21 20 21 21 21 21 23 24 26 28 29 30 30 29 30 30 29 29 29 29 28 28 27 25 27 27 27 26 25 25 25 26 26 27 28 28
24 24 22 22 23 23 25 23 21 23 23 23 22 21 20 21 21 21 21 23 24 27 28 29 29 29 30 30 30 30 30 29 29 28 29 29 27 27 28 28 27 27 27 27 27 28 28 29 29
24 24 23 22 22 22 24 24 22 23 23 23 22 22 21 21 22 22 21 22 23 25 27 28 29 30 30 30 30 30 31 31 30 29 29 30 30 29 29 29 29 28 28 28 28 29 29 29 29
25 24 23 23 23 23 24 24 23 23 24 24 24 23 22 21 22 23 22 22 22 23 25 26 27 29 29 30 30 30 30 31 32 31 31 31 31 31 31 31 31 30 30 29 30 30 30 31 31
25 25 24 23 23 24 24 25 24 24 25 25 25 23 23 23 23 23 22 21 22 23 25 27 28 28 29 29 29 29 30 32 32 32 32 31 31 32 32 32 32 32 31 31 31 31 32 33 33
26 25 25 25 24 25 25 25 25 25 25 26 26 25 24 24 23 23 23 23 22 23 25 27 28 28 29 28 28 30 30 30 31 31 31 31 32 32 32 32 32 32 33 33 33 33 34 35 35
27 26 26 26 26 26 26 26 25 26 26 26 27 27 25 24 24 24 24 24 23 24 26 27 28 30 29 28 28 29 30 31 32 32 33 33 32 33 33 33 34 34 34 35 35 35 35 36 36
28 27 28 28 28 28 27 27 25 26 26 26 26 27 27 26 25 24 24 25 24 25 26 27 28 29 29 29 29 30 31 32 32 33 34 34 34 35 35 35 35 36 36 36 36 37 37 37 37
29 29 29 30 30 31 28 28 27 26 26 26 26 26 26 27 26 25 25 26 26 25 26 27 29 28 28 29 30 31 31 32 33 34 35 35 35 36 37 37 37 37 37 37 37 38 38 37 37
32 31 31 32 33 32 29 30 29 27 26 27 27 27 27 27 28 27 27 27 28 27 27 27 29 29 29 29 30 31 31 32 33 34 36 36 36 36 37 38 39 38 38 38 38 39 39 39 38
33 33 32 33 34 33 32 32 30 27 27 27 28 28 27 28 28 29 29 29 29 30 29 29 29 29 30 30 31 31 31 31 32 32 33 35 36 37 38 38 39 40 39 39 39 40 40 40 40
34 34 33 34 35 35 34 33 31 28 27 28 28 28 28 29 29 29 30 31 31 31 31 31 30 30 30 30 30 31 31 31 31 33 34 35 35 35 36 37 39 40 40 41 41 40 41 41 42
36 35 34 35 36 36 36 34 32 29 28 28 29 29 29 30 30 30 30 31 31 32 32 32 32 30 30 31 31 32 32 33 34 35 36 36 36 36 36 37 39 39 41 41 41 42 42 42 43
36 37 37 37 38 37 38 36 33 31 30 30 29 30 30 30 31 31 32 32 32 33 33 33 33 32 32 33 33 33 34 35 36 36 37 38 38 38 39 39 40 41 42 43 43 43 44 44 45
38 38 38 39 39 38 38 37 33 32 31 31 30 30 31 31 31 31 32 33 34 34 35 35 35 35 35 35 35 36 36 37 37 38 39 39 39 39 40 41 42 43 43 44 45 46 46 47 47

GEFSSGP_500_meanwind_216.txt.gz
Wind_Speed
22 23 24 25 27 27 27 25 23 23 23 23 23 23 23 23 24 25 23 22 21 21 20 20 19 19 19 19 19 19 18 17 16 15 15 13 13 12 12 12 12 11 11 10 10 9 8 8 7
24 25 26 26 28 28 27 26 26 25 25 25 24 25 25 25 25 26 24 23 23 23 22 22 22 21 21 21 21 21 20 19 18 17 16 15 14 13 13 12 12 12 12 12 11 11 10 9 9
26 27 27 28 29 28 27 27 27 27 27 26 26 27 27 26 26 27 26 25 25 24 24 24 23 23 23 22 22 22 21 20 19 18 17 17 16 15 14 13 13 13 13 12 12 12 11 10 10
27 28 29 29 29 29 28 28 29 30 29 28 29 29 28 28 27 27 27 26 26 26 26 25 25 25 24 24 23 23 22 21 21 20 18 18 17 16 15 15 14 14 14 13 13 13 12 11 11
28 30 30 30 30 29 29 29 30 31 30 30 31 30 30 29 29 29 28 27 27 27 27 27 27 26 25 25 24 24 23 22 22 21 20 19 18 17 16 16 15 14 14 14 14 14 13 13 12
29 30 31 31 30 30 30 30 31 31 31 31 32 32 31 30 30 30 29 28 28 28 28 28 27 27 26 26 25 25 24 23 22 22 21 20 19 18 18 17 16 16 15 15 15 15 15 14 14
30 31 31 31 31 30 30 30 32 32 31 32 33 33 32 31 31 30 30 29 29 29 29 28 28 28 28 27 26 25 25 24 24 22 21 21 20 20 19 18 17 16 16 16 15 16 15 15 15
30 31 30 30 31 31 30 31 31 32 32 33 34 34 32 31 32 31 30 30 30 29 29 29 29 29 29 28 27 26 26 25 25 24 22 22 21 20 19 18 18 17 16 16 16 16 16 16 16
30 31 29 29 30 30 30 31 31 31 31 33 34 33 32 32 32 31 30 30 30 30 29 29 28 29 29 29 28 27 27 27 26 25 24 23 22 21 20 19 19 18 17 17 17 17 17 17 17
31 30 28 28 29 30 30 31 31 31 31 32 33 33 32 31 32 31 30 30 30 30 29 29 29 29 29 28 28 28 28 28 27 27 25 24 23 22 21 20 20 19 18 17 18 18 18 18 18
31 30 28 28 29 30 30 30 30 31 31 31 31 30 31 31 30 30 30 30 30 30 30 30 30 29 28 29 29 29 29 29 28 28 26 26 25 23 22 21 20 20 19 19 19 19 19 19 19
32 30 29 29 29 29 30 29 30 31 30 30 30 30 30 30 29 29 29 29 29 30 29 30 30 29 29 29 30 30 29 29 29 29 27 26 26 25 24 22 21 20 20 20 20 20 20 20 21
31 30 30 30 30 29 29 29 29 29 29 30 30 30 29 29 29 28 28 29 28 29 28 29 29 29 30 30 30 30 30 29 30 29 28 27 27 26 24 23 22 22 21 21 22 22 22 21 21
31 30 30 29 29 28 29 29 29 27 28 29 28 29 29 28 28 28 27 28 28 28 28 28 28 29 30 31 31 31 30 29 30 31 29 28 27 27 25 24 23 23 22 22 22 22 22 22 22
31 31 30 29 29 28 29 28 28 27 28 28 28 29 29 27 28 28 27 27 27 28 27 28 28 29 30 32 32 32 30 30 30 31 30 29 29 29 28 27 25 24 23 23 23 23 22 22 23
32 32 31 28 28 27 29 28 27 28 29 29 28 28 27 27 27 27 27 27 27 28 28 28 29 29 30 32 33 32 30 30 31 31 30 29 29 29 29 28 26 25 25 25 24 24 24 24 24
34 33 30 28 27 28 29 27 27 28 29 30 30 28 26 26 26 26 26 27 27 28 29 28 28 29 30 31 32 31 31 30 30 31 31 30 30 30 30 30 28 26 25 25 25 25 25 25 26
33 32 30 29 28 28 28 27 27 28 29 30 30 29 27 26 26 26 26 26 26 27 29 28 28 29 31 32 31 30 31 31 30 30 31 31 31 31 31 31 30 28 27 26 26 27 27 27 28
33 33 31 29 29 29 29 28 27 28 29 30 29 30 29 28 28 27 26 27 28 28 28 27 28 29 31 32 31 29 29 29 30 31 31 31 31 31 31 30 31 30 29 28 28 29 29 29 29
34 34 32 31 30 30 30 29 28 29 29 28 29 29 30 29 29 27 26 26 28 27 26 26 27 29 30 31 31 30 30 29 29 29 31 31 32 32 32 31 31 31 31 30 30 30 30 30 29
36 34 33 33 32 32 32 31 29 29 29 29 29 29 29 29 28 28 27 26 27 26 26 27 27 28 30 31 31 30 30 29 29 30 30 31 31 32 32 32 33 32 32 31 31 31 31 31 31
37 34 34 34 34 34 34 34 30 30 29 30 29 29 29 30 29 28 27 26 26 26 26 28 28 29 30 31 31 31 31 31 31 31 32 33 33 33 34 34 34 33 33 33 33 33 33 33 33
37 35 35 35 35 36 35 36 31 30 30 30 30 29 29 30 30 29 28 28 27 27 27 28 29 30 31 32 32 31 31 33 33 32 32 33 34 35 35 35 35 35 34 34 34 34 35 35 35
38 37 36 36 36 38 35 36 34 31 29 29 30 30 30 30 30 29 29 29 29 29 28 27 29 31 31 32 33 31 32 33 34 33 34 35 35 35 35 36 36 36 36 36 36 36 37 37 37
39 39 38 38 38 39 35 37 35 31 30 29 29 30 30 31 32 31 30 29 30 30 29 28 29 31 32 33 34 32 32 34 35 35 36 37 37 36 37 37 37 37 37 37 37 37 38 39 39
38 39 39 38 37 37 36 38 34 32 31 30 30 31 31 30 31 31 31 30 31 30 29 29 30 31 32 32 33 33 33 34 35 35 36 38 38 39 38 38 38 39 40 40 40 40 40 41 41
38 39 37 37 37 38 38 38 35 33 32 30 30 31 32 30 30 31 31 30 31 31 30 30 30 31 32 32 32 31 32 32 33 33 35 37 39 39 40 40 40 41 42 43 42 42 43 43 43
39 37 37 37 38 39 38 37 36 33 33 31 30 31 32 31 30 31 31 31 32 32 32 31 31 31 32 32 33 32 32 33 33 34 35 36 37 39 39 41 42 42 43 44 44 44 44 44 45
39 39 38 38 38 37 37 36 35 33 33 32 32 31 32 33 32 32 32 32 32 33 33 33 32 32 33 33 34 33 33 33 33 35 36 38 39 40 41 42 42 43 44 45 45 46 46 46 47
40 40 39 39 39 38 37 36 34 34 33 33 32 31 32 33 33 32 32 33 33 34 34 35 35 35 35 36 36 36 36 36 36 36 36 37 38 40 41 41 42 43 44 45 45 46 47 47 48

GEFSSGP_500_meanwind_222.txt.gz
Wind_Speed
23 23 23 24 25 25 25 22 20 20 21 21 22 22 22 21 20 19 18 18 18 18 18 17 17 17 16 16 16 16 16 15 15 15 14 14 13 13 12 12 11 11 11 10 10 10 10 9 9
23 24 24 25 26 25 24 22 22 22 23 24 24 24 24 23 22 21 20 20 19 19 19 19 19 19 19 19 18 18 18 17 17 16 16 16 15 14 14 13 12 12 12 11 11 11 11 11 10
24 25 25 26 26 25 24 22 22 23 25 26 26 25 26 25 24 23 22 22 21 21 21 21 21 21 21 20 20 20 20 20 19 18 18 17 17 16 16 15 14 14 13 13 12 12 11 11 11
26 27 27 27 26 25 24 24 24 25 26 27 27 27 27 28 27 25 24 23 23 23 23 23 23 23 23 22 22 22 22 22 21 21 19 18 18 18 18 17 16 15 15 14 14 13 13 12 11
28 29 29 28 27 26 26 26 27 27 28 28 29 29 29 29 29 28 26 25 26 26 25 25 25 25 25 24 24 24 24 23 23 22 21 20 19 19 19 18 17 17 16 15 15 15 14 14 13
30 30 30 29 28 27 27 27 28 29 29 30 30 30 30 31 31 30 29 28 28 28 28 27 28 27 27 26 26 25 25 24 24 24 22 21 20 20 19 19 18 18 17 17 16 16 15 15 14
31 31 30 30 30 29 29 29 29 30 30 30 31 31 31 32 32 31 31 31 30 30 30 29 29 29 29 28 27 26 26 26 25 25 24 23 22 21 21 20 19 18 18 17 17 16 16 15 14
31 32 31 31 30 30 30 30 30 30 31 31 32 32 32 32 32 32 33 33 33 32 31 31 31 31 30 30 29 28 27 27 27 26 25 24 23 22 22 21 20 19 18 18 18 17 16 15 15
33 33 31 30 31 30 30 31 31 31 31 31 32 32 33 33 33 33 33 33 33 32 32 32 32 32 31 31 30 29 28 28 27 27 26 25 24 23 23 22 21 21 20 19 18 18 17 16 16
33 33 31 31 31 31 31 32 31 31 32 32 32 33 32 32 32 32 32 32 32 31 31 31 32 32 32 32 31 31 30 29 29 28 27 26 26 24 24 24 23 22 22 21 20 19 18 18 17
34 33 32 32 32 32 32 32 32 32 32 33 32 33 33 32 32 32 31 31 31 31 31 31 31 31 32 32 33 32 31 30 30 29 29 28 27 26 26 25 25 24 23 22 21 20 19 19 19
35 33 33 33 34 34 33 32 32 32 32 33 33 33 33 33 32 31 30 31 31 31 31 31 31 32 32 32 33 33 32 32 31 30 30 28 28 27 27 27 26 25 24 23 22 22 21 20 21
35 34 34 34 35 35 34 33 32 31 31 32 32 32 32 32 31 31 30 31 31 31 31 31 31 32 32 32 32 33 32 32 31 31 30 29 29 29 28 29 28 27 26 24 24 23 23 22 21
36 35 35 35 35 35 35 34 33 30 31 32 32 32 32 31 30 29 30 30 31 31 31 31 31 32 32 32 32 32 32 32 32 31 30 30 29 29 29 28 29 28 27 26 25 25 24 24 23
36 36 35 34 35 35 36 34 32 30 32 32 32 32 31 31 30 30 30 30 30 31 31 31 31 31 31 32 33 32 32 33 32 32 32 31 29 29 29 28 29 29 28 27 27 27 25 25 24
37 37 35 33 35 36 36 34 31 31 32 32 32 32 32 31 30 30 30 30 30 30 30 30 31 31 30 31 32 33 33 34 33 33 33 31 30 30 30 29 29 29 29 29 28 27 27 26 26
38 37 35 34 35 36 37 34 30 32 32 32 31 31 32 32 30 30 30 30 30 31 31 31 31 31 30 31 32 33 34 34 34 33 33 32 31 31 31 30 30 30 30 29 29 28 27 27 27
38 37 36 35 34 36 37 34 31 33 33 33 33 32 32 32 30 30 30 31 31 31 32 32 31 31 31 31 32 32 33 34 34 34 33 32 32 32 32 31 31 32 32 32 31 29 28 28 27
39 38 37 35 35 36 36 35 33 33 33 33 33 32 32 31 31 31 31 31 31 31 31 32 32 33 32 31 31 32 33 34 35 35 34 33 33 33 33 33 32 31 31 31 31 30 30 30 30
40 39 37 36 35 36 36 35 33 33 33 32 32 32 32 31 31 31 31 31 32 31 31 31 32 33 33 32 31 32 33 34 35 35 34 33 33 33 34 34 33 32 32 31 31 31 32 32 32
40 39 37 37 36 37 37 36 33 32 32 32 32 33 32 31 31 29 29 31 31 32 32 31 32 33 33 33 33 32 33 34 36 35 33 32 32 33 33 33 33 33 32 32 32 32 32 32 33
40 38 38 38 38 37 37 38 33 31 31 32 32 32 32 31 32 30 29 30 30 31 31 31 32 32 32 32 32 32 34 34 35 34 33 33 34 34 34 34 34 34 33 33 32 32 33 33 33
41 39 39 39 39 39 38 40 34 31 31 31 32 32 32 32 32 31 30 30 31 31 31 31 32 32 31 31 32 33 34 34 35 35 34 34 34 35 34 34 35 35 34 34 34 34 34 35 35
41 40 40 40 41 43 40 40 37 32 30 30 32 32 33 33 32 31 30 30 30 30 31 31 32 32 31 32 31 32 33 35 35 34 34 33 34 34 35 35 35 35 35 35 36 36 36 36 36
41 41 40 40 42 43 40 42 39 33 31 31 32 32 33 33 33 32 31 30 30 30 30 30 32 33 32 33 33 33 34 35 36 35 34 34 33 34 35 36 36 36 36 36 37 38 38 38 38
41 41 42 42 43 43 43 43 38 35 33 32 32 32 32 33 33 33 31 31 30 30 30 30 32 33 33 34 35 34 34 35 36 36 35 35 35 35 36 37 37 37 37 37 38 39 40 40 40
41 42 41 41 42 43 44 42 39 37 35 33 32 33 33 33 33 33 32 32 31 31 30 30 31 33 34 35 36 37 36 36 37 36 35 36 36 37 37 37 38 38 38 38 38 40 41 42 42
40 39 39 41 41 42 42 41 38 37 36 34 33 33 33 33 33 33 33 33 32 31 30 30 32 32 33 34 36 37 38 37 37 36 36 37 38 38 38 39 39 39 40 39 40 41 42 43 43
38 39 39 40 41 41 41 39 37 36 36 35 33 33 32 32 33 34 34 34 33 33 32 31 32 33 32 33 35 37 37 37 37 37 37 37 38 39 40 40 40 41 42 42 42 43 43 44 45
37 38 39 39 39 39 40 39 36 35 35 34 34 33 33 32 33 34 34 34 34 34 33 33 33 33 33 34 35 36 37 37 38 38 37 38 38 39 40 41 41 42 42 43 44 44 45 45 46

GEFSSGP_500_meanwind_228.txt.gz
Wind_Speed
23 23 24 24 25 25 23 21 20 20 21 21 22 22 21 20 19 19 18 17 16 15 15 14 14 14 13 13 13 13 13 12 11 10 10 9 9 9 9 9 8 8 7 7 7 6 6 6 6
24 24 25 26 26 25 23 21 21 21 22 23 23 23 22 22 21 21 19 18 18 17 17 16 16 16 16 15 14 14 14 14 13 12 12 11 11 10 10 10 10 9 9 8 8 8 7 7 7
26 26 27 27 27 25 24 22 22 23 24 24 25 25 24 23 23 22 21 20 20 19 19 19 19 18 18 18 17 16 16 15 15 14 14 13 13 12 12 12 12 11 11 10 10 9 9 8 8
28 28 28 29 28 26 25 24 24 25 26 26 26 27 26 25 25 25 24 23 22 22 21 21 20 20 20 20 19 18 18 17 17 16 16 15 15 14 14 13 13 13 13 12 12 11 11 10 9
30 30 30 30 29 27 26 26 26 26 27 27 28 28 27 27 27 27 26 25 25 24 23 23 23 22 22 22 21 21 20 20 19 18 18 17 17 16 15 15 14 14 13 13 13 12 12 11 11
31 32 32 31 29 28 28 28 28 28 28 29 29 29 28 29 29 29 29 28 27 27 26 25 25 24 24 24 23 23 23 22 21 21 20 19 18 18 17 16 16 15 15 14 14 14 13 13 12
33 33 33 32 31 30 29 29 30 30 30 30 31 30 30 30 30 30 30 30 30 29 28 28 27 26 26 25 25 25 25 24 23 23 22 21 20 19 18 18 17 17 16 16 15 15 14 14 13
34 35 34 33 32 31 31 31 31 31 31 31 31 31 31 30 31 31 31 32 31 31 30 30 29 28 28 28 27 27 26 26 25 25 24 23 22 21 20 19 19 19 18 17 16 15 15 15 14
36 36 35 34 33 33 33 33 32 32 32 32 32 32 32 31 31 31 32 32 33 32 32 31 31 30 30 29 29 29 28 27 26 26 26 25 24 22 21 21 20 20 20 19 18 17 16 16 16
37 37 35 34 34 35 34 34 34 34 33 33 33 33 33 32 31 32 32 33 34 34 33 33 33 33 32 31 31 30 29 28 28 28 27 26 25 24 23 22 22 21 21 20 19 18 18 17 17
38 37 35 35 35 36 36 35 35 35 34 33 34 34 33 32 32 31 32 33 34 34 34 34 34 34 33 32 32 32 31 30 29 28 28 28 27 26 25 24 23 23 23 22 21 20 19 19 19
39 38 37 36 37 37 37 36 36 35 34 35 35 34 34 33 32 32 32 32 33 33 33 34 34 33 32 31 31 32 31 31 30 29 29 29 28 28 27 26 25 25 24 24 23 22 21 21 21
40 39 39 39 38 38 38 37 37 36 35 36 35 35 34 34 33 33 32 32 33 34 34 34 34 34 33 31 30 31 31 32 32 31 30 30 30 29 28 28 27 26 25 25 24 24 23 23 23
41 40 40 40 40 39 39 39 38 35 36 36 36 36 35 34 34 34 33 33 33 34 34 34 34 34 34 33 32 32 32 32 33 32 32 32 31 31 30 29 28 27 27 26 26 25 25 25 24
43 42 41 41 41 41 41 40 38 37 38 38 37 36 36 35 35 34 34 33 34 34 34 34 34 34 35 34 33 32 32 33 33 33 32 32 32 32 31 30 29 28 28 28 27 27 26 26 26
44 44 43 41 42 42 43 41 37 39 39 38 38 37 36 36 35 34 34 33 34 34 34 34 34 35 35 35 33 33 33 34 34 34 33 33 33 31 31 31 30 30 29 29 29 28 27 27 27
45 45 43 42 42 43 44 41 38 40 40 39 38 37 37 36 36 35 34 34 34 34 34 34 35 35 35 35 34 34 34 35 35 34 34 34 34 32 31 32 32 30 31 31 30 29 29 28 28
45 44 43 43 43 43 43 42 39 40 40 39 38 37 37 37 36 35 34 34 34 34 33 34 35 35 35 36 35 35 35 35 35 36 36 36 35 34 33 33 34 32 31 31 32 30 30 29 29
46 45 44 43 43 44 43 42 40 40 40 39 37 37 37 36 36 36 35 34 34 34 33 34 35 35 35 35 35 35 35 35 35 35 36 36 35 34 34 34 35 33 31 31 32 32 31 31 31
47 46 45 45 44 44 43 42 40 40 39 38 37 37 37 36 36 35 35 34 34 34 34 33 33 34 34 34 34 34 35 35 35 36 35 35 36 35 35 35 36 34 33 33 33 33 33 32 32
48 47 45 44 44 44 44 42 39 38 38 38 38 37 37 36 35 35 35 34 34 34 34 34 33 34 34 34 34 35 34 34 34 34 35 35 35 36 36 36 36 35 34 34 34 34 34 33 32
47 46 46 45 45 45 44 45 40 38 38 37 36 36 36 35 35 35 35 35 34 34 34 34 34 34 34 34 35 34 34 33 33 34 34 34 34 36 36 36 36 34 33 34 35 35 34 33 33
47 47 47 47 47 47 45 46 42 39 37 35 35 35 35 35 35 36 35 35 34 34 34 35 35 34 34 34 34 34 34 34 33 33 34 35 35 35 36 35 35 34 34 34 35 35 35 35 34
48 48 48 48 48 49 46 46 45 40 37 35 35 35 34 35 35 35 35 35 35 34 34 35 36 36 34 33 33 34 34 34 34 34 34 34 35 35 36 36 35 34 34 34 35 35 35 35 35
48 47 47 48 49 50 46 47 45 40 38 36 35 35 35 35 35 36 36 36 34 33 33 34 35 36 35 33 33 34 34 34 34 34 34 35 36 36 36 36 36 35 35 35 36 35 35 36 37
45 46 48 49 49 49 47 47 44 41 39 37 36 35 35 35 35 36 36 36 35 34 34 34 35 36 35 34 33 34 34 35 35 34 35 35 37 38 37 36 36 36 36 37 37 37 36 36 37
42 44 44 46 48 48 48 47 44 42 40 38 37 36 36 35 36 36 36 36 35 35 35 35 34 35 36 35 35 34 34 35 35 35 34 34 36 38 39 37 37 37 37 38 39 39 39 38 38
41 40 41 44 46 47 48 46 44 41 40 39 38 37 36 36 37 36 35 35 35 35 35 36 35 35 36 36 35 35 35 35 35 36 36 36 36 38 39 40 39 38 38 39 40 40 41 41 40
39 40 41 42 45 46 47 46 43 41 39 39 39 38 37 37 37 36 36 35 35 35 35 35 36 36 36 36 35 35 35 36 36 36 37 37 38 39 40 40 40 40 40 40 40 40 40 41 41
37 39 39 41 43 45 46 45 43 41 40 38 38 38 37 37 37 37 37 36 36 36 36 37 36 36 36 36 36 36 35 36 36 37 38 38 39 39 40 41 41 41 41 42 41 41 42 42 43

GEFSSGP_500_meanwind_234.txt.gz
Wind_Speed
25 25 24 24 25 25 24 22 21 21 22 22 22 22 21 21 20 20 19 18 17 16 15 15 14 14 14 13 13 12 12 12 12 11 11 11 10 9 8 8 8 8 7 7 6 6 6 6 5
26 26 26 26 27 26 24 22 22 22 23 23 24 23 23 22 21 20 20 19 19 18 17 16 16 16 15 15 14 14 13 13 14 13 13 12 11 11 10 10 9 9 8 8 7 7 7 6 6
27 27 28 28 28 26 24 22 23 24 24 25 25 25 24 23 22 22 21 21 21 20 19 19 18 18 17 16 16 15 15 15 15 15 14 14 13 12 12 11 11 11 10 9 9 8 8 7 7
28 29 30 30 29 27 26 24 24 25 25 26 26 26 25 25 24 23 23 23 22 22 21 21 20 20 19 18 18 17 17 16 17 16 16 15 15 14 14 13 12 12 11 10 10 10 9 9 8
30 31 31 31 29 28 27 26 26 26 27 27 28 27 27 26 26 25 25 24 24 24 24 23 22 21 21 20 20 20 19 18 18 18 18 17 16 16 15 14 14 13 12 12 11 10 10 10 10
31 32 32 31 30 29 28 28 27 27 28 28 29 29 28 28 27 27 26 26 26 25 25 24 24 24 23 23 22 22 21 20 20 20 20 19 18 17 17 16 15 14 14 13 13 12 12 11 11
33 33 33 33 32 31 30 30 29 29 30 30 31 31 30 29 29 28 28 28 27 27 27 26 26 26 25 25 25 24 24 23 22 22 21 21 20 18 18 17 16 15 15 14 14 13 13 13 13
35 35 35 34 33 32 31 31 31 31 31 32 32 32 31 30 30 30 30 29 29 28 28 28 28 28 27 27 27 26 26 25 25 24 23 23 22 21 20 19 18 17 16 16 15 15 15 14 14
37 37 36 34 34 33 32 32 33 33 33 32 33 32 32 32 32 31 31 30 30 30 30 30 30 30 29 29 28 28 28 28 27 26 25 25 25 23 22 21 20 19 18 18 17 17 16 16 16
39 39 36 36 36 35 34 34 34 34 34 34 34 33 33 33 33 32 32 31 30 30 30 30 31 31 31 30 29 30 30 29 29 29 28 27 27 26 25 23 22 21 20 19 19 19 18 17 17
41 40 38 38 38 37 36 36 36 36 35 35 35 34 34 34 34 34 33 32 32 31 31 31 32 32 32 32 31 30 31 31 31 30 30 29 29 28 27 26 25 24 22 21 21 20 20 19 19
43 41 41 40 39 39 39 38 37 37 37 37 37 36 35 35 35 35 34 34 33 33 32 33 33 33 33 33 33 32 31 32 32 31 31 31 31 30 30 28 27 26 25 23 23 22 22 21 21
44 42 42 42 42 41 40 40 39 38 38 37 37 37 36 36 36 36 35 34 34 34 33 33 33 33 34 35 35 34 32 32 33 32 31 32 32 32 32 30 29 28 27 26 25 23 23 22 22
44 44 44 44 43 43 42 41 41 38 39 39 39 38 38 37 37 36 36 35 34 34 34 34 35 35 35 35 36 36 34 32 32 33 32 32 32 33 32 32 31 30 29 28 27 26 25 24 24
45 46 46 45 44 44 44 44 41 40 40 40 40 39 39 38 38 37 37 36 35 35 35 35 36 36 36 36 36 37 36 34 33 34 34 33 33 33 33 32 32 31 31 30 29 28 27 26 26
47 47 47 45 45 45 46 44 41 42 41 41 40 40 39 39 38 38 38 37 37 36 36 36 36 37 37 36 37 38 37 36 35 35 35 34 34 34 34 33 32 32 32 32 31 30 29 28 28
47 47 47 46 46 46 46 44 43 43 43 42 41 40 40 39 39 39 38 38 37 37 37 37 37 37 37 36 37 38 38 37 37 36 35 35 35 35 35 34 34 34 34 33 32 31 31 30 30
46 47 47 47 47 47 46 45 44 43 43 42 41 41 40 40 39 39 39 38 38 38 37 37 37 37 37 36 37 38 38 37 37 38 37 37 36 36 36 35 35 35 35 34 33 33 32 32 31
47 47 47 47 47 47 47 46 44 44 43 42 42 41 40 40 40 39 39 38 38 38 37 37 37 37 36 36 37 37 37 36 36 37 38 37 37 37 37 36 35 36 36 36 35 35 34 33 33
48 47 46 47 47 48 47 46 45 45 43 42 42 41 40 40 39 39 39 39 38 37 37 36 36 36 36 36 37 37 37 37 36 37 37 37 38 38 38 38 36 37 37 37 36 35 34 34 34
49 48 46 47 46 47 48 47 45 45 44 43 42 42 41 40 39 39 39 39 38 38 37 37 36 37 37 37 37 38 38 37 36 37 38 38 38 39 39 39 38 38 38 37 37 36 35 36 36
49 49 48 47 46 47 48 48 45 44 43 42 41 41 41 41 40 39 39 39 38 38 38 38 36 37 38 37 37 38 38 37 37 37 38 39 39 39 39 39 38 37 38 38 38 37 37 37 37
47 48 49 48 47 48 48 49 46 44 43 41 41 41 41 41 40 39 39 38 38 38 38 37 37 38 38 37 37 38 38 38 38 38 38 39 39 40 38 39 39 38 38 38 38 37 38 38 38
44 46 47 47 47 49 46 47 47 44 42 40 40 40 40 40 40 39 39 38 37 37 36 36 37 37 38 38 37 37 37 37 38 37 38 39 39 39 38 39 39 39 39 39 38 38 38 38 39
43 43 44 46 48 49 46 47 47 44 42 40 39 39 39 39 39 39 38 37 37 36 36 36 36 36 37 38 38 38 38 38 38 37 37 37 38 38 38 38 39 39 40 39 39 39 38 39 39
42 42 43 44 46 46 47 47 45 44 43 41 39 39 39 39 38 38 38 38 37 36 35 35 36 37 37 37 38 37 38 39 39 37 37 37 37 38 38 37 38 39 39 39 40 39 38 38 39
41 41 41 41 44 45 47 46 44 43 43 41 40 39 39 39 39 38 38 38 38 37 36 36 36 37 38 38 38 38 38 39 39 39 38 37 37 39 39 38 38 38 38 38 39 39 39 39 39
39 39 40 41 40 42 46 46 44 42 41 41 40 40 39 39 39 39 38 38 38 37 36 36 37 37 38 39 38 39 38 39 39 39 39 38 37 38 38 38 39 39 39 39 39 40 41 41 40
36 38 41 41 42 41 42 44 43 41 41 40 40 40 39 39 40 40 39 38 38 38 37 37 37 37 38 38 38 39 39 39 40 40 40 39 38 37 38 38 39 39 39 39 40 40 41 42 42
35 37 38 40 41 41 41 42 42 40 40 40 40 40 39 40 40 41 40 39 39 39 38 37 37 37 38 38 39 39 38 39 39 40 40 40 39 39 39 39 39 39 39 40 40 40 41 43 44

GEFSSGP_500_meanwind_240.txt.gz
Wind_Speed
26 26 26 27 28 27 25 24 23 23 22 22 23 23 23 23 23 23 20 19 18 18 17 16 16 16 16 15 14 13 13 13 13 12 12 11 11 10 10 9 8 8 8 7 7 6 6 5 5
27 27 27 28 28 27 25 25 24 24 24 23 24 24 24 25 24 23 22 21 20 19 19 18 17 17 17 17 16 15 14 13 13 13 13 12 12 11 10 10 9 9 9 8 8 7 7 6 6
28 28 29 29 29 27 25 26 26 26 25 24 24 25 26 25 25 24 23 22 21 21 20 20 19 19 18 18 17 16 15 15 14 14 14 13 13 12 11 11 10 10 10 9 9 8 8 7 7
29 30 30 31 29 27 27 26 26 27 27 26 26 26 26 26 26 25 24 23 23 22 22 22 21 20 19 19 19 18 17 16 16 15 15 15 14 14 13 12 12 11 11 10 10 9 9 9 8
31 32 32 31 30 29 29 27 28 28 28 27 27 28 27 27 26 26 26 25 24 24 23 23 23 22 21 21 20 20 19 18 18 17 17 16 16 15 15 14 14 13 12 11 11 11 10 10 9
33 34 34 32 31 31 30 29 29 29 29 29 29 29 28 28 28 28 27 27 26 26 25 25 24 24 23 22 22 22 21 20 19 19 19 18 17 17 16 15 15 14 13 13 12 12 12 11 11
36 36 35 33 32 32 31 30 31 30 30 30 30 31 30 30 30 29 29 29 28 27 27 27 26 26 25 24 24 23 23 22 21 21 20 20 20 19 18 17 16 15 15 14 14 13 13 13 12
38 38 37 35 34 33 33 33 33 32 32 32 32 33 32 31 32 31 31 31 30 29 29 29 28 28 27 26 26 25 24 24 23 22 22 22 21 21 20 19 18 17 16 16 16 15 14 14 13
40 40 38 35 35 35 34 35 35 34 33 33 34 34 34 33 33 32 32 32 31 31 30 30 29 29 28 28 27 27 26 25 25 24 23 23 23 22 21 21 20 19 18 17 17 16 16 15 15
42 42 38 37 38 38 37 37 36 36 35 35 35 36 36 34 34 34 33 33 32 32 32 32 31 31 30 29 29 29 28 27 27 26 25 24 24 24 23 22 22 21 20 20 19 18 17 17 17
44 42 40 40 40 40 39 39 39 38 37 37 37 37 37 36 35 35 35 34 33 33 33 33 32 32 31 31 30 30 30 29 28 28 27 26 26 26 26 25 24 23 23 22 21 20 19 19 18
45 44 43 43 43 42 42 42 41 40 39 38 38 38 39 38 37 37 36 35 35 34 34 33 33 33 33 32 32 31 31 30 30 29 28 27 27 27 27 26 26 26 25 24 24 22 21 20 20
46 45 46 46 45 45 45 44 44 42 41 40 40 39 40 40 40 39 38 37 36 35 35 34 34 34 35 34 33 33 32 31 31 31 30 29 29 28 28 27 27 27 27 27 26 25 23 22 22
47 47 48 48 47 47 47 47 46 43 42 42 42 41 41 41 40 40 39 39 38 37 36 36 35 35 35 35 35 35 35 33 33 32 32 31 31 31 29 29 29 29 28 28 28 26 25 24 24
50 50 50 49 49 48 49 49 47 44 44 44 43 43 42 42 42 41 40 40 39 39 38 37 37 36 36 36 36 36 36 36 35 34 33 32 32 31 30 31 31 31 30 29 29 28 27 26 25
51 52 51 49 49 49 50 49 47 46 46 46 45 44 43 43 43 42 41 41 40 40 40 39 39 38 37 37 37 37 37 37 36 36 35 35 34 33 32 32 32 32 32 31 31 30 29 28 27
53 52 51 50 50 50 51 50 48 47 47 47 46 45 44 44 43 42 42 41 41 41 41 41 40 39 38 38 36 37 37 37 38 37 37 36 36 35 33 33 33 33 32 32 32 31 31 30 29
51 52 51 51 51 51 51 50 48 48 48 47 47 46 46 45 44 43 42 41 41 41 41 41 41 40 39 39 38 37 37 38 39 38 37 37 37 36 35 35 34 34 34 33 32 32 31 31 30
50 51 51 51 52 52 51 50 48 49 49 48 47 46 46 45 45 44 43 42 41 41 41 40 41 41 40 40 38 37 37 38 38 38 38 37 37 36 35 35 35 35 35 34 33 32 32 32 31
51 51 51 51 52 52 51 51 49 49 48 48 48 47 46 46 45 44 43 43 42 41 40 40 40 41 40 40 39 38 38 38 38 38 38 38 37 36 36 36 36 36 36 35 35 34 34 33 33
50 50 49 50 51 52 51 51 50 49 48 47 48 47 46 46 45 44 44 43 42 42 41 40 40 40 40 39 39 39 39 38 38 38 38 38 37 37 36 36 36 36 37 37 36 35 35 34 34
48 47 47 47 49 51 51 52 49 49 48 48 47 46 46 45 45 45 44 43 42 42 41 41 40 40 40 39 39 39 39 38 37 38 38 39 38 37 37 37 38 38 37 36 36 35 36 35 35
46 45 46 46 47 49 49 51 49 48 48 48 47 45 45 45 45 45 44 44 43 42 41 41 40 40 39 39 39 39 39 39 38 38 39 39 39 39 38 38 38 38 38 38 37 37 37 36 36
43 44 44 45 45 48 46 48 48 45 45 45 45 45 45 44 44 44 44 44 43 42 41 41 40 40 40 40 39 39 39 39 38 38 39 39 39 39 39 39 39 39 39 39 38 38 37 38 37
40 41 42 43 45 45 43 46 46 43 42 43 43 44 44 44 44 44 44 44 43 42 41 40 40 40 39 39 38 38 39 39 39 38 39 39 39 39 40 40 39 39 39 40 39 39 39 39 39
38 39 40 41 42 41 40 43 43 41 42 43 43 43 43 43 43 43 43 44 43 42 42 41 40 40 39 39 38 38 39 39 39 38 39 40 40 40 41 40 40 40 39 40 40 40 40 40 40
37 38 38 38 40 40 40 42 42 42 42 43 42 42 42 43 42 42 43 43 43 42 41 40 40 39 38 38 38 38 38 39 39 38 39 40 40 41 41 41 40 40 40 40 39 39 40 41 41
35 36 36 38 39 38 38 39 41 42 42 43 43 42 41 42 41 41 42 42 43 43 42 41 40 40 39 38 38 38 39 40 40 38 38 39 39 40 40 41 41 41 41 40 40 40 40 41 41
32 34 35 36 37 37 36 38 39 40 41 42 42 42 42 42 41 41 41 41 42 43 42 41 41 40 40 40 39 39 40 40 40 39 39 39 39 40 40 41 42 41 41 41 40 40 40 41 41
30 32 34 34 34 35 35 36 38 39 41 41 42 42 42 42 42 42 41 41 41 42 42 42 42 41 40 40 40 40 40 40 40 40 39 39 40 40 41 42 42 43 42 42 41 41 41 42 42

GEFSSGP_500_meanwind_246.txt.gz
Wind_Speed
27 27 28 28 28 28 25 23 23 23 23 23 22 23 22 21 20 19 18 17 17 17 17 16 15 14 14 13 12 12 11 11 11 11 11 11 10 10 9 9 8 8 7 7 6 6 5 5 5
28 28 29 29 29 28 25 23 23 24 24 24 24 24 24 22 21 20 19 18 18 18 18 17 17 16 15 15 14 13 13 12 12 12 12 12 11 11 11 10 10 9 8 8 7 7 7 6 6
30 30 30 30 29 27 25 24 24 25 26 26 25 25 24 23 22 21 21 20 19 19 19 19 18 18 17 16 16 15 14 14 13 13 13 13 12 12 12 11 11 10 10 9 9 8 8 8 7
32 32 32 32 30 27 26 25 26 26 27 26 26 26 25 25 24 23 22 22 21 20 20 19 19 19 19 18 17 16 16 15 15 15 14 14 13 13 12 12 11 11 11 10 10 9 9 9 8
34 35 35 33 30 28 27 27 27 28 28 27 27 27 26 26 26 25 24 23 23 22 22 21 21 20 20 20 19 18 18 17 17 16 15 15 15 14 13 13 12 12 11 11 11 10 10 9 9
36 37 37 34 32 30 30 29 29 29 29 29 28 28 27 27 27 26 26 25 24 24 23 22 22 22 21 21 21 20 19 19 18 17 17 16 16 15 14 14 13 13 13 12 12 12 11 10 10
38 39 38 36 34 33 32 31 31 31 31 30 30 30 29 28 28 27 27 26 25 25 24 23 23 23 23 23 22 22 21 21 20 19 19 18 17 17 16 15 15 14 14 14 13 13 12 12 11
40 41 40 38 36 35 34 34 33 34 34 32 32 31 30 29 29 28 28 28 27 26 26 25 25 25 24 24 24 23 23 22 22 22 21 20 19 18 18 17 17 16 16 15 15 14 14 13 13
42 42 41 39 38 37 37 36 36 36 36 35 34 33 32 32 31 30 30 29 29 28 28 27 27 26 26 25 24 24 24 24 24 23 23 22 21 20 19 19 18 18 17 17 16 16 15 15 14
44 44 41 40 40 40 39 39 38 38 38 37 36 35 34 34 33 32 31 31 30 29 29 29 29 28 28 27 26 26 26 25 25 25 24 23 23 22 21 20 20 20 19 18 18 17 17 16 16
45 44 42 42 42 42 42 41 40 40 40 38 37 37 36 35 35 34 34 33 32 31 31 30 30 30 30 29 28 28 27 27 26 26 26 25 24 24 23 22 22 21 21 20 20 19 18 18 18
47 46 45 44 44 44 44 44 43 42 42 41 40 39 38 37 36 36 35 35 34 33 32 32 32 32 31 31 30 30 29 29 28 28 28 27 27 26 25 24 24 23 22 22 22 21 20 20 19
49 48 47 47 47 46 46 46 45 45 44 43 43 41 40 39 38 37 37 36 35 35 34 34 33 33 33 33 32 32 31 30 30 30 30 29 29 27 27 26 25 24 24 23 23 23 23 22 21
49 49 49 49 49 49 49 48 47 45 45 45 44 43 42 41 40 39 38 37 37 36 35 35 35 34 34 34 34 34 33 31 31 31 31 31 30 29 29 28 26 26 25 24 24 24 24 24 23
51 52 51 51 51 50 51 50 48 46 47 47 46 45 44 43 42 41 39 39 38 38 37 36 36 36 36 36 35 35 35 33 32 32 31 31 30 30 30 30 29 28 27 27 26 26 25 25 25
53 54 54 52 52 51 52 51 47 47 48 48 48 47 46 45 43 42 41 40 40 39 38 37 37 37 37 36 36 35 35 35 34 34 33 33 32 31 31 30 30 30 30 30 29 29 28 27 26
54 55 54 53 53 52 53 51 48 48 48 49 49 48 47 46 45 43 42 41 40 40 39 38 38 38 37 37 37 36 36 36 36 36 35 35 34 33 33 32 31 32 32 32 32 31 30 29 28
51 53 54 54 53 54 54 52 49 48 48 48 49 49 48 47 45 44 43 42 41 41 40 39 38 38 38 38 38 38 37 37 37 37 37 37 36 35 36 34 33 34 34 33 33 32 32 31 30
50 51 52 52 52 54 54 52 50 50 50 49 49 49 48 47 46 45 44 43 42 42 41 40 39 39 39 39 38 38 38 38 38 38 38 38 37 37 37 36 35 35 35 34 35 35 33 32 32
48 50 50 50 50 52 52 51 50 50 49 49 49 49 48 48 47 46 45 44 43 42 42 40 40 40 39 39 39 39 38 38 38 38 39 39 39 38 37 37 36 36 36 35 35 35 35 34 33
47 48 49 49 48 50 51 51 49 49 49 49 49 49 48 48 47 47 46 45 44 43 42 41 40 40 40 40 40 40 39 39 38 38 38 39 39 39 39 38 37 37 36 36 35 35 35 35 35
45 45 46 47 47 49 49 50 49 48 49 49 48 48 48 48 47 47 46 45 44 43 42 42 41 41 41 41 41 40 39 39 39 39 39 39 40 39 39 39 38 38 37 36 36 35 35 35 35
42 42 43 44 45 48 48 49 48 48 47 47 46 46 47 48 48 47 46 45 45 44 43 43 42 42 42 42 41 41 40 40 40 40 39 39 39 40 40 40 39 38 37 37 37 36 36 36 36
39 40 40 40 41 44 45 47 47 46 46 45 44 45 46 47 48 47 47 46 46 45 44 44 43 43 42 42 42 41 41 40 40 41 40 39 39 40 41 40 39 38 38 37 37 37 37 37 37
36 37 37 38 39 41 42 45 46 44 44 44 44 45 45 46 47 47 47 47 46 46 45 45 44 43 43 42 42 41 41 41 41 40 40 40 40 40 41 40 39 39 38 38 38 38 37 37 37
33 35 37 37 37 38 40 42 43 42 43 43 44 45 45 46 46 46 46 46 45 45 44 45 45 44 43 42 42 42 41 41 41 40 40 40 41 40 41 41 40 39 39 39 39 39 38 38 38
30 33 34 34 35 36 39 39 40 40 41 42 42 44 46 45 45 45 45 45 45 44 44 43 44 44 43 43 43 42 41 41 41 40 40 40 40 40 40 40 40 40 40 39 39 39 38 39 39
26 30 33 33 32 33 36 37 38 38 39 40 41 43 44 44 45 45 44 45 45 45 44 44 44 44 43 43 42 42 41 41 41 41 41 41 40 40 41 41 40 40 40 40 40 40 40 40 40
24 28 31 32 32 32 33 35 36 36 37 38 39 40 42 42 43 43 43 43 44 44 44 44 44 44 43 43 43 42 41 41 40 40 40 40 40 40 40 41 41 41 41 41 41 41 41 41 41
23 25 27 29 30 32 32 32 34 34 35 36 37 38 40 42 42 43 42 43 43 43 43 44 45 44 43 43 43 43 43 42 41 40 40 40 40 40 40 40 41 42 42 43 42 42 42 42 42